GEFSMW_prec_meanprecacc_204.txt.gz
Total_Precipitation_Accumulation
1.29 1.52 1.71 1.89 2.14 2.33 2.44 2.61 2.88 3.20 3.41 3.73 4.02 4.17 4.25 4.44 4.54 4.57 4.65 4.65 4.65 4.75 4.81 4.67 4.60 4.45 4.32 4.12 4.01 3.83 3.62 3.37 3.29 3.13 2.72 2.22 1.91 1.87 1.80 1.84 1.98 1.99 1.93
1.33 1.64 1.94 2.36 2.57 2.65 2.68 2.90 3.21 3.51 3.68 4.05 4.48 4.85 5.00 5.09 5.12 5.13 5.32 5.44 5.47 5.62 5.68 5.63 5.42 5.21 4.92 4.45 4.06 3.84 3.64 3.33 3.38 3.32 3.19 2.57 2.13 1.77 1.45 1.53 1.61 1.68 1.83
1.55 1.79 2.10 2.36 2.53 2.62 2.71 2.90 3.32 3.78 4.23 4.68 5.12 5.50 5.76 5.78 5.70 5.44 5.59 5.75 5.69 5.76 5.92 5.88 5.65 5.30 4.74 4.21 4.00 3.90 3.77 3.56 3.47 3.33 3.39 2.93 2.46 2.07 1.62 1.39 1.32 1.42 1.49
1.54 1.78 1.99 2.23 2.37 2.52 2.75 2.94 3.29 3.92 4.43 4.82 5.43 5.95 6.24 6.46 6.58 6.39 6.09 5.88 5.66 5.55 5.44 5.26 4.85 4.45 4.11 3.82 3.70 3.72 3.56 3.53 3.40 3.31 3.03 2.80 2.51 2.26 1.88 1.52 1.33 1.32 1.33
1.40 1.66 1.76 1.98 2.27 2.38 2.51 2.72 3.20 3.80 4.50 5.14 5.70 6.20 6.64 6.87 6.82 6.42 6.01 5.52 5.15 4.74 4.37 4.00 3.73 3.63 3.47 3.26 3.16 3.12 3.04 2.90 2.83 2.84 2.81 2.74 2.49 2.17 1.95 1.71 1.50 1.47 1.37
1.28 1.36 1.45 1.61 1.93 2.04 2.24 2.48 2.89 3.60 4.34 4.98 5.60 6.05 6.43 6.47 6.15 5.62 5.11 4.79 4.42 3.95 3.48 3.23 3.00 2.88 2.71 2.49 2.37 2.35 2.39 2.47 2.52 2.57 2.55 2.51 2.48 2.32 2.22 2.04 1.81 1.67 1.62
1.16 1.24 1.27 1.38 1.57 1.73 2.01 2.39 2.87 3.44 3.91 4.42 4.93 5.26 5.49 5.57 5.49 5.16 4.72 4.42 3.98 3.55 3.11 2.68 2.45 2.22 2.03 1.92 1.87 1.83 1.82 1.94 2.09 2.22 2.27 2.25 2.20 2.16 2.18 2.23 2.05 1.81 1.68
1.24 1.37 1.45 1.52 1.62 1.75 1.92 2.29 2.75 3.16 3.37 3.59 3.98 4.26 4.41 4.48 4.37 4.13 3.78 3.50 3.21 2.94 2.61 2.20 1.85 1.62 1.49 1.42 1.46 1.48 1.50 1.55 1.66 1.77 1.92 1.95 1.90 1.96 2.04 2.11 2.18 2.11 1.84
1.23 1.40 1.54 1.63 1.71 1.76 1.91 2.05 2.31 2.54 2.77 2.95 3.11 3.23 3.27 3.22 3.11 2.90 2.66 2.45 2.27 2.05 1.84 1.62 1.45 1.32 1.27 1.25 1.25 1.23 1.23 1.30 1.39 1.47 1.58 1.70 1.73 1.77 1.85 1.96 2.06 2.12 2.02
1.26 1.38 1.44 1.53 1.58 1.53 1.62 1.70 1.90 2.00 2.16 2.30 2.32 2.22 2.23 2.22 2.07 1.90 1.81 1.68 1.50 1.39 1.32 1.23 1.19 1.13 1.06 1.09 1.13 1.07 1.06 1.16 1.20 1.21 1.29 1.40 1.49 1.57 1.66 1.78 1.88 1.93 1.91
1.21 1.24 1.26 1.28 1.31 1.25 1.26 1.35 1.50 1.70 1.79 1.79 1.81 1.73 1.67 1.55 1.46 1.35 1.31 1.23 1.14 1.12 1.08 1.06 1.04 1.01 0.99 0.98 0.97 0.95 0.95 1.01 1.14 1.22 1.27 1.32 1.37 1.45 1.48 1.50 1.55 1.68 1.79
1.22 1.15 1.11 1.07 1.07 1.03 1.05 1.13 1.20 1.30 1.34 1.36 1.36 1.35 1.29 1.20 1.16 1.11 1.07 1.07 1.04 1.00 1.00 0.99 0.98 0.99 1.02 1.03 0.99 0.90 0.89 0.95 1.04 1.11 1.16 1.16 1.16 1.23 1.33 1.39 1.38 1.43 1.55
1.24 1.20 1.13 1.04 1.05 1.10 1.12 1.03 1.04 1.10 1.11 1.14 1.14 1.11 1.15 1.12 1.09 1.10 1.11 1.09 1.04 1.00 0.95 0.90 0.92 0.98 1.01 1.00 0.97 0.91 0.89 0.89 0.94 0.96 0.96 0.97 1.00 1.01 1.05 1.11 1.17 1.21 1.24
1.20 1.23 1.26 1.22 1.14 1.14 1.23 1.13 1.03 1.03 1.11 1.09 1.07 0.98 0.95 0.98 1.00 1.02 1.04 1.01 0.96 0.95 0.95 0.93 0.90 0.89 0.84 0.76 0.70 0.71 0.75 0.75 0.75 0.76 0.76 0.81 0.89 0.90 0.92 0.90 0.94 1.00 1.11
1.36 1.30 1.25 1.26 1.20 1.15 1.18 1.13 1.08 1.05 1.24 1.21 1.17 1.07 0.97 0.97 0.98 0.98 0.95 0.91 0.86 0.80 0.79 0.78 0.74 0.68 0.58 0.50 0.47 0.52 0.55 0.59 0.60 0.63 0.61 0.61 0.71 0.80 0.78 0.72 0.81 0.92 1.03
1.56 1.52 1.42 1.40 1.39 1.29 1.25 1.18 1.17 1.17 1.25 1.30 1.36 1.38 1.29 1.22 1.18 1.07 0.96 0.94 0.92 0.83 0.72 0.67 0.65 0.59 0.46 0.45 0.42 0.46 0.54 0.59 0.61 0.64 0.64 0.58 0.58 0.61 0.59 0.59 0.71 0.86 0.90
1.79 1.75 1.68 1.60 1.54 1.47 1.43 1.39 1.32 1.29 1.30 1.36 1.41 1.38 1.36 1.35 1.29 1.12 1.00 0.98 0.94 0.91 0.87 0.76 0.68 0.66 0.59 0.49 0.41 0.44 0.53 0.60 0.62 0.61 0.60 0.52 0.49 0.54 0.55 0.56 0.60 0.68 0.70
1.73 1.71 1.72 1.69 1.67 1.56 1.49 1.44 1.37 1.34 1.36 1.37 1.38 1.34 1.24 1.24 1.17 1.07 1.03 0.99 0.91 0.88 0.85 0.80 0.72 0.64 0.50 0.36 0.30 0.32 0.43 0.55 0.58 0.56 0.56 0.58 0.57 0.53 0.53 0.53 0.56 0.66 0.72
1.84 1.77 1.71 1.62 1.58 1.52 1.45 1.41 1.40 1.39 1.39 1.37 1.28 1.21 1.12 1.10 1.03 1.00 0.93 0.84 0.77 0.74 0.71 0.65 0.59 0.58 0.46 0.26 0.21 0.25 0.42 0.56 0.53 0.47 0.44 0.48 0.52 0.53 0.51 0.55 0.67 0.75 0.80
1.70 1.57 1.41 1.32 1.35 1.38 1.36 1.34 1.34 1.34 1.31 1.13 0.96 0.91 0.92 0.92 0.88 0.81 0.74 0.70 0.67 0.66 0.57 0.50 0.49 0.49 0.45 0.29 0.23 0.27 0.41 0.50 0.48 0.47 0.44 0.41 0.42 0.43 0.43 0.54 0.68 0.79 0.79
1.25 1.17 1.10 1.16 1.23 1.24 1.19 1.18 1.13 1.13 1.07 0.96 0.83 0.80 0.78 0.73 0.70 0.68 0.67 0.62 0.58 0.61 0.59 0.56 0.51 0.45 0.36 0.24 0.20 0.22 0.31 0.42 0.46 0.47 0.49 0.44 0.33 0.31 0.35 0.48 0.57 0.65 0.63
0.92 0.88 0.90 0.96 1.01 0.98 0.98 1.04 1.03 0.94 0.88 0.90 0.84 0.79 0.69 0.59 0.59 0.68 0.65 0.60 0.63 0.66 0.65 0.63 0.56 0.43 0.33 0.21 0.17 0.19 0.24 0.29 0.41 0.50 0.48 0.42 0.33 0.32 0.36 0.45 0.53 0.54 0.63
0.68 0.71 0.73 0.77 0.86 0.86 0.88 0.93 0.94 0.84 0.83 0.89 0.87 0.76 0.62 0.63 0.63 0.65 0.62 0.55 0.53 0.50 0.47 0.47 0.47 0.41 0.32 0.25 0.19 0.22 0.25 0.28 0.32 0.38 0.35 0.32 0.34 0.37 0.49 0.52 0.52 0.62 0.82
0.52 0.59 0.62 0.62 0.69 0.72 0.77 0.82 0.76 0.73 0.86 0.96 0.89 0.74 0.61 0.57 0.54 0.53 0.47 0.42 0.41 0.40 0.39 0.37 0.35 0.35 0.35 0.31 0.28 0.29 0.29 0.30 0.33 0.36 0.37 0.41 0.47 0.52 0.60 0.69 0.79 0.83 0.88
0.49 0.54 0.58 0.57 0.54 0.57 0.64 0.61 0.62 0.72 0.95 0.94 0.81 0.68 0.54 0.48 0.44 0.37 0.30 0.25 0.22 0.20 0.25 0.26 0.25 0.28 0.29 0.26 0.27 0.26 0.26 0.27 0.27 0.29 0.46 0.68 0.74 0.81 0.87 0.90 0.95 1.00 0.93
0.44 0.52 0.52 0.47 0.49 0.55 0.57 0.54 0.54 0.63 0.82 0.84 0.65 0.54 0.46 0.39 0.32 0.28 0.26 0.19 0.14 0.12 0.11 0.12 0.13 0.15 0.17 0.17 0.18 0.20 0.22 0.25 0.27 0.33 0.57 0.69 0.74 0.82 0.83 0.84 0.87 0.93 0.93

GEFSMW_prec_meanprecacc_210.txt.gz
Total_Precipitation_Accumulation
1.36 1.61 1.81 2.02 2.25 2.44 2.55 2.72 2.97 3.28 3.51 3.84 4.14 4.28 4.36 4.56 4.63 4.63 4.69 4.69 4.71 4.84 4.89 4.71 4.63 4.49 4.37 4.18 4.09 3.92 3.72 3.45 3.39 3.24 2.79 2.26 1.94 1.91 1.83 1.87 2.02 2.02 1.97
1.37 1.73 2.04 2.48 2.71 2.78 2.80 3.01 3.33 3.63 3.80 4.19 4.65 5.04 5.18 5.25 5.27 5.25 5.40 5.51 5.53 5.67 5.72 5.66 5.46 5.25 4.97 4.49 4.12 3.93 3.74 3.41 3.46 3.40 3.27 2.63 2.17 1.80 1.48 1.56 1.63 1.70 1.86
1.59 1.86 2.19 2.46 2.63 2.73 2.83 3.00 3.41 3.87 4.32 4.80 5.29 5.71 5.94 5.97 5.87 5.59 5.68 5.82 5.74 5.80 5.94 5.91 5.69 5.34 4.79 4.26 4.07 3.98 3.84 3.62 3.53 3.39 3.47 2.99 2.51 2.11 1.66 1.45 1.36 1.44 1.51
1.58 1.83 2.04 2.31 2.45 2.61 2.85 3.03 3.38 4.01 4.52 4.90 5.52 6.09 6.36 6.57 6.69 6.49 6.18 5.94 5.71 5.58 5.46 5.28 4.88 4.48 4.14 3.84 3.73 3.76 3.61 3.59 3.45 3.36 3.08 2.85 2.56 2.30 1.92 1.55 1.35 1.35 1.36
1.43 1.71 1.81 2.05 2.34 2.46 2.58 2.79 3.28 3.89 4.56 5.19 5.75 6.29 6.72 6.92 6.87 6.47 6.06 5.56 5.19 4.76 4.38 4.01 3.75 3.65 3.48 3.27 3.18 3.15 3.06 2.93 2.86 2.87 2.84 2.78 2.52 2.21 1.99 1.73 1.51 1.49 1.41
1.30 1.40 1.51 1.67 1.98 2.09 2.29 2.53 2.93 3.65 4.38 5.01 5.62 6.10 6.49 6.53 6.19 5.65 5.14 4.82 4.45 3.98 3.51 3.25 3.02 2.89 2.73 2.51 2.39 2.38 2.42 2.50 2.55 2.60 2.59 2.55 2.52 2.36 2.26 2.08 1.83 1.69 1.65
1.18 1.27 1.31 1.44 1.63 1.79 2.07 2.42 2.90 3.46 3.92 4.43 4.94 5.28 5.54 5.61 5.53 5.19 4.75 4.45 4.02 3.60 3.14 2.70 2.47 2.24 2.04 1.94 1.90 1.86 1.86 1.97 2.11 2.24 2.30 2.28 2.23 2.19 2.22 2.27 2.08 1.84 1.70
1.26 1.40 1.49 1.57 1.66 1.78 1.96 2.32 2.76 3.17 3.38 3.60 3.99 4.27 4.44 4.52 4.41 4.16 3.80 3.52 3.24 2.96 2.63 2.21 1.87 1.64 1.51 1.44 1.49 1.51 1.53 1.58 1.68 1.79 1.94 1.96 1.92 1.98 2.06 2.15 2.22 2.14 1.86
1.25 1.43 1.58 1.67 1.75 1.79 1.94 2.07 2.32 2.55 2.78 2.96 3.12 3.24 3.29 3.23 3.13 2.92 2.68 2.48 2.29 2.06 1.85 1.64 1.46 1.34 1.29 1.28 1.29 1.26 1.26 1.34 1.43 1.50 1.61 1.72 1.75 1.79 1.88 2.00 2.10 2.15 2.04
1.29 1.43 1.48 1.57 1.61 1.56 1.64 1.72 1.92 2.02 2.18 2.31 2.34 2.22 2.23 2.22 2.08 1.92 1.83 1.69 1.51 1.39 1.33 1.24 1.20 1.15 1.08 1.12 1.16 1.12 1.11 1.20 1.23 1.23 1.31 1.42 1.51 1.60 1.69 1.82 1.92 1.97 1.94
1.23 1.26 1.29 1.33 1.34 1.27 1.28 1.36 1.51 1.72 1.81 1.81 1.82 1.74 1.68 1.56 1.47 1.37 1.33 1.24 1.16 1.13 1.10 1.08 1.06 1.03 1.01 1.01 1.00 0.97 0.98 1.04 1.17 1.25 1.29 1.35 1.40 1.47 1.50 1.52 1.58 1.71 1.82
1.24 1.17 1.13 1.11 1.10 1.06 1.07 1.15 1.20 1.30 1.35 1.38 1.37 1.36 1.30 1.21 1.17 1.12 1.08 1.09 1.05 1.02 1.03 1.02 1.00 1.02 1.05 1.06 1.01 0.92 0.91 0.97 1.06 1.14 1.19 1.19 1.19 1.26 1.35 1.41 1.40 1.46 1.57
1.27 1.23 1.15 1.08 1.08 1.13 1.15 1.05 1.05 1.10 1.12 1.14 1.15 1.11 1.16 1.13 1.09 1.11 1.12 1.10 1.06 1.02 0.98 0.93 0.95 1.01 1.04 1.02 0.98 0.93 0.90 0.91 0.96 0.98 0.99 1.00 1.03 1.04 1.07 1.13 1.19 1.22 1.25
1.22 1.25 1.27 1.24 1.16 1.16 1.27 1.16 1.05 1.04 1.12 1.10 1.07 0.98 0.95 0.98 1.00 1.02 1.05 1.02 0.98 0.98 0.98 0.96 0.92 0.91 0.87 0.78 0.73 0.73 0.77 0.77 0.78 0.79 0.78 0.84 0.91 0.93 0.94 0.92 0.96 1.02 1.13
1.38 1.32 1.27 1.28 1.22 1.18 1.21 1.18 1.13 1.07 1.25 1.22 1.17 1.07 0.97 0.97 0.99 0.99 0.96 0.92 0.88 0.83 0.82 0.82 0.77 0.71 0.60 0.52 0.49 0.55 0.57 0.60 0.62 0.65 0.62 0.63 0.72 0.82 0.79 0.73 0.82 0.93 1.05
1.59 1.55 1.45 1.43 1.42 1.34 1.32 1.24 1.21 1.19 1.27 1.31 1.37 1.39 1.29 1.23 1.19 1.09 0.97 0.95 0.93 0.85 0.75 0.71 0.69 0.62 0.48 0.47 0.44 0.48 0.55 0.60 0.61 0.65 0.65 0.59 0.60 0.62 0.60 0.60 0.72 0.88 0.92
1.82 1.79 1.72 1.66 1.64 1.60 1.53 1.44 1.35 1.31 1.31 1.37 1.41 1.38 1.36 1.35 1.30 1.15 1.02 1.00 0.96 0.93 0.90 0.79 0.72 0.69 0.61 0.50 0.43 0.45 0.54 0.61 0.62 0.62 0.61 0.54 0.51 0.57 0.57 0.57 0.62 0.69 0.71
1.76 1.75 1.78 1.76 1.74 1.63 1.54 1.48 1.40 1.37 1.38 1.39 1.39 1.35 1.24 1.24 1.18 1.09 1.06 1.01 0.93 0.91 0.88 0.82 0.74 0.66 0.50 0.37 0.31 0.33 0.44 0.56 0.59 0.58 0.58 0.59 0.58 0.54 0.55 0.54 0.57 0.66 0.73
1.87 1.81 1.76 1.66 1.63 1.58 1.50 1.45 1.43 1.41 1.40 1.38 1.30 1.22 1.13 1.11 1.04 1.01 0.95 0.87 0.80 0.77 0.74 0.68 0.62 0.60 0.47 0.28 0.23 0.26 0.43 0.57 0.55 0.48 0.45 0.48 0.53 0.54 0.52 0.55 0.68 0.75 0.81
1.71 1.60 1.45 1.35 1.38 1.42 1.40 1.37 1.37 1.36 1.33 1.14 0.97 0.92 0.93 0.92 0.88 0.82 0.76 0.72 0.70 0.69 0.61 0.54 0.53 0.52 0.48 0.32 0.26 0.29 0.42 0.51 0.49 0.47 0.44 0.42 0.43 0.43 0.44 0.54 0.69 0.79 0.80
1.26 1.18 1.12 1.17 1.24 1.26 1.21 1.19 1.15 1.14 1.08 0.97 0.84 0.80 0.78 0.73 0.70 0.68 0.68 0.66 0.61 0.63 0.61 0.59 0.54 0.47 0.38 0.26 0.22 0.24 0.31 0.42 0.46 0.47 0.49 0.44 0.34 0.32 0.35 0.48 0.58 0.65 0.64
0.92 0.88 0.91 0.97 1.01 0.98 0.98 1.05 1.05 0.97 0.90 0.92 0.85 0.79 0.70 0.59 0.59 0.69 0.68 0.66 0.66 0.69 0.67 0.64 0.57 0.45 0.34 0.22 0.18 0.20 0.24 0.29 0.41 0.50 0.48 0.43 0.33 0.32 0.37 0.46 0.53 0.55 0.63
0.69 0.72 0.73 0.78 0.86 0.86 0.88 0.94 0.95 0.85 0.84 0.90 0.88 0.76 0.63 0.64 0.64 0.68 0.67 0.59 0.56 0.52 0.48 0.48 0.48 0.41 0.33 0.25 0.19 0.22 0.25 0.28 0.33 0.39 0.36 0.33 0.34 0.38 0.50 0.53 0.53 0.62 0.83
0.53 0.60 0.62 0.62 0.70 0.72 0.77 0.83 0.76 0.73 0.87 0.97 0.90 0.75 0.63 0.59 0.56 0.55 0.50 0.43 0.42 0.41 0.40 0.37 0.36 0.35 0.35 0.31 0.28 0.29 0.29 0.31 0.34 0.38 0.38 0.42 0.47 0.52 0.61 0.69 0.79 0.84 0.89
0.50 0.55 0.59 0.58 0.55 0.58 0.65 0.62 0.62 0.73 0.96 0.95 0.82 0.69 0.56 0.49 0.45 0.38 0.31 0.26 0.23 0.20 0.25 0.26 0.25 0.29 0.29 0.26 0.27 0.26 0.26 0.29 0.28 0.30 0.46 0.68 0.74 0.81 0.87 0.90 0.95 1.01 0.94
0.46 0.53 0.53 0.48 0.50 0.55 0.57 0.54 0.55 0.64 0.84 0.86 0.68 0.55 0.47 0.40 0.32 0.28 0.27 0.20 0.15 0.12 0.11 0.12 0.13 0.15 0.17 0.17 0.18 0.21 0.24 0.26 0.28 0.34 0.57 0.69 0.75 0.82 0.84 0.84 0.88 0.94 0.96

GEFSMW_prec_meanprecacc_216.txt.gz
Total_Precipitation_Accumulation
1.39 1.63 1.83 2.04 2.27 2.45 2.57 2.75 3.01 3.32 3.54 3.86 4.16 4.32 4.41 4.59 4.66 4.66 4.72 4.73 4.74 4.88 4.92 4.73 4.66 4.53 4.40 4.21 4.13 3.98 3.76 3.50 3.45 3.31 2.86 2.31 2.00 1.96 1.88 1.92 2.11 2.15 2.06
1.40 1.76 2.08 2.51 2.75 2.81 2.83 3.05 3.37 3.67 3.83 4.22 4.69 5.08 5.20 5.28 5.31 5.28 5.43 5.54 5.57 5.70 5.75 5.69 5.49 5.28 5.00 4.53 4.17 4.01 3.80 3.46 3.53 3.49 3.36 2.70 2.24 1.84 1.51 1.60 1.68 1.76 1.93
1.63 1.89 2.24 2.51 2.68 2.78 2.88 3.05 3.48 3.94 4.38 4.85 5.36 5.79 6.01 6.05 5.94 5.65 5.72 5.85 5.77 5.82 5.97 5.93 5.71 5.37 4.83 4.30 4.12 4.04 3.91 3.70 3.62 3.48 3.57 3.07 2.58 2.18 1.71 1.49 1.40 1.49 1.57
1.61 1.89 2.11 2.38 2.52 2.66 2.89 3.08 3.45 4.10 4.60 4.97 5.59 6.19 6.45 6.65 6.77 6.55 6.22 5.97 5.73 5.60 5.49 5.30 4.90 4.51 4.17 3.88 3.77 3.81 3.67 3.65 3.51 3.42 3.14 2.92 2.64 2.38 1.98 1.59 1.40 1.40 1.42
1.46 1.76 1.87 2.12 2.40 2.50 2.62 2.85 3.38 3.98 4.65 5.28 5.82 6.35 6.78 6.97 6.95 6.56 6.13 5.61 5.22 4.80 4.43 4.06 3.79 3.70 3.52 3.32 3.22 3.20 3.12 2.99 2.92 2.92 2.89 2.84 2.58 2.26 2.05 1.78 1.57 1.55 1.44
1.33 1.43 1.54 1.71 2.02 2.13 2.33 2.59 3.02 3.77 4.49 5.09 5.69 6.15 6.54 6.57 6.25 5.73 5.23 4.91 4.53 4.04 3.56 3.30 3.07 2.94 2.76 2.56 2.44 2.43 2.46 2.54 2.59 2.64 2.64 2.59 2.56 2.40 2.31 2.13 1.88 1.75 1.69
1.19 1.29 1.33 1.47 1.66 1.82 2.10 2.46 2.96 3.56 4.03 4.53 5.02 5.35 5.59 5.66 5.57 5.23 4.81 4.51 4.09 3.65 3.18 2.75 2.52 2.29 2.09 1.98 1.95 1.91 1.90 2.01 2.15 2.27 2.34 2.32 2.27 2.22 2.26 2.32 2.12 1.89 1.76
1.26 1.41 1.51 1.59 1.69 1.82 1.99 2.35 2.81 3.23 3.45 3.68 4.06 4.34 4.49 4.55 4.44 4.19 3.84 3.57 3.28 2.99 2.66 2.25 1.90 1.69 1.56 1.48 1.53 1.56 1.58 1.63 1.72 1.82 1.98 2.00 1.95 2.01 2.09 2.18 2.26 2.18 1.91
1.26 1.44 1.59 1.70 1.78 1.82 1.96 2.09 2.35 2.58 2.81 3.00 3.16 3.27 3.32 3.26 3.15 2.95 2.70 2.51 2.33 2.09 1.88 1.67 1.50 1.38 1.33 1.33 1.34 1.32 1.32 1.40 1.49 1.55 1.65 1.76 1.79 1.83 1.91 2.03 2.15 2.20 2.09
1.30 1.44 1.51 1.59 1.64 1.58 1.66 1.74 1.93 2.04 2.20 2.33 2.36 2.24 2.25 2.24 2.10 1.94 1.85 1.71 1.54 1.42 1.36 1.27 1.24 1.20 1.13 1.17 1.21 1.17 1.18 1.27 1.30 1.30 1.38 1.48 1.56 1.65 1.74 1.85 1.95 2.01 1.99
1.24 1.27 1.31 1.35 1.37 1.30 1.30 1.38 1.53 1.73 1.82 1.82 1.84 1.75 1.69 1.57 1.47 1.38 1.34 1.26 1.18 1.15 1.13 1.12 1.11 1.08 1.06 1.06 1.04 1.01 1.03 1.09 1.21 1.30 1.34 1.39 1.45 1.53 1.55 1.56 1.62 1.75 1.87
1.25 1.18 1.15 1.13 1.13 1.09 1.09 1.16 1.22 1.31 1.35 1.39 1.38 1.37 1.31 1.22 1.17 1.13 1.09 1.10 1.07 1.04 1.06 1.06 1.06 1.08 1.11 1.12 1.06 0.96 0.95 1.01 1.10 1.18 1.24 1.24 1.23 1.30 1.39 1.44 1.44 1.49 1.60
1.28 1.24 1.17 1.10 1.11 1.17 1.18 1.06 1.06 1.11 1.13 1.15 1.15 1.13 1.17 1.14 1.10 1.12 1.13 1.11 1.07 1.05 1.01 0.97 1.00 1.06 1.10 1.09 1.03 0.96 0.93 0.94 0.98 1.02 1.03 1.04 1.06 1.07 1.10 1.16 1.21 1.24 1.27
1.25 1.28 1.29 1.26 1.19 1.19 1.29 1.18 1.06 1.05 1.13 1.10 1.08 0.99 0.96 0.99 1.01 1.03 1.06 1.03 0.99 1.00 1.00 0.99 0.95 0.94 0.90 0.83 0.78 0.77 0.80 0.80 0.80 0.82 0.82 0.87 0.95 0.97 0.98 0.97 1.01 1.05 1.16
1.40 1.36 1.29 1.30 1.25 1.19 1.22 1.19 1.14 1.08 1.25 1.22 1.18 1.08 0.98 0.98 1.00 1.00 0.97 0.93 0.89 0.84 0.84 0.85 0.79 0.73 0.63 0.55 0.54 0.58 0.60 0.63 0.64 0.67 0.65 0.66 0.77 0.85 0.82 0.76 0.85 0.98 1.10
1.60 1.57 1.47 1.45 1.44 1.36 1.33 1.26 1.22 1.20 1.27 1.32 1.38 1.40 1.30 1.24 1.21 1.11 0.99 0.96 0.95 0.87 0.77 0.72 0.71 0.64 0.50 0.49 0.46 0.51 0.58 0.63 0.64 0.66 0.67 0.61 0.63 0.65 0.62 0.62 0.74 0.91 0.95
1.83 1.81 1.75 1.68 1.66 1.62 1.54 1.45 1.36 1.32 1.32 1.38 1.42 1.40 1.38 1.37 1.32 1.16 1.03 1.01 0.97 0.94 0.91 0.80 0.74 0.71 0.62 0.51 0.44 0.47 0.57 0.64 0.65 0.65 0.63 0.55 0.52 0.58 0.58 0.58 0.63 0.71 0.73
1.78 1.77 1.80 1.78 1.76 1.66 1.57 1.50 1.41 1.38 1.38 1.40 1.41 1.37 1.26 1.26 1.20 1.10 1.07 1.02 0.94 0.92 0.89 0.83 0.76 0.68 0.52 0.38 0.33 0.34 0.46 0.60 0.62 0.61 0.60 0.61 0.59 0.55 0.56 0.55 0.59 0.68 0.75
1.89 1.84 1.79 1.69 1.66 1.61 1.54 1.48 1.46 1.43 1.42 1.40 1.31 1.24 1.15 1.13 1.06 1.03 0.96 0.88 0.81 0.79 0.76 0.70 0.64 0.62 0.49 0.30 0.25 0.28 0.46 0.62 0.59 0.52 0.47 0.50 0.55 0.55 0.53 0.57 0.69 0.77 0.83
1.73 1.62 1.48 1.39 1.42 1.45 1.44 1.42 1.41 1.39 1.36 1.17 0.99 0.93 0.94 0.93 0.89 0.83 0.78 0.74 0.72 0.71 0.63 0.57 0.59 0.58 0.53 0.38 0.32 0.35 0.46 0.57 0.53 0.51 0.47 0.44 0.44 0.45 0.45 0.55 0.70 0.81 0.81
1.27 1.19 1.14 1.19 1.26 1.27 1.22 1.22 1.18 1.17 1.11 1.00 0.86 0.82 0.80 0.75 0.72 0.70 0.70 0.67 0.63 0.66 0.64 0.63 0.59 0.53 0.44 0.32 0.27 0.28 0.34 0.45 0.49 0.49 0.51 0.45 0.34 0.33 0.37 0.50 0.59 0.67 0.65
0.93 0.89 0.92 0.98 1.02 0.99 0.99 1.07 1.07 0.98 0.90 0.92 0.86 0.81 0.71 0.60 0.60 0.70 0.70 0.67 0.68 0.71 0.69 0.66 0.60 0.48 0.37 0.25 0.21 0.22 0.26 0.31 0.43 0.52 0.50 0.44 0.34 0.33 0.38 0.47 0.54 0.56 0.64
0.69 0.72 0.74 0.79 0.86 0.87 0.89 0.95 0.96 0.87 0.85 0.91 0.89 0.77 0.64 0.65 0.65 0.69 0.69 0.62 0.59 0.54 0.51 0.50 0.50 0.44 0.35 0.28 0.22 0.24 0.26 0.29 0.35 0.41 0.38 0.35 0.35 0.38 0.50 0.53 0.53 0.63 0.84
0.54 0.61 0.63 0.63 0.71 0.73 0.77 0.83 0.77 0.74 0.89 0.98 0.92 0.77 0.66 0.61 0.58 0.57 0.52 0.47 0.46 0.44 0.42 0.40 0.38 0.37 0.38 0.34 0.30 0.31 0.31 0.33 0.36 0.40 0.40 0.43 0.47 0.52 0.61 0.69 0.80 0.85 0.91
0.52 0.56 0.61 0.60 0.57 0.59 0.65 0.63 0.63 0.74 0.97 0.96 0.84 0.72 0.59 0.52 0.48 0.39 0.32 0.28 0.26 0.24 0.28 0.28 0.27 0.30 0.32 0.28 0.29 0.28 0.28 0.30 0.30 0.32 0.47 0.69 0.75 0.82 0.88 0.91 0.96 1.02 0.96
0.46 0.54 0.54 0.49 0.52 0.57 0.59 0.56 0.56 0.65 0.85 0.87 0.69 0.57 0.48 0.41 0.34 0.30 0.27 0.20 0.15 0.13 0.11 0.13 0.14 0.16 0.18 0.18 0.19 0.22 0.25 0.27 0.29 0.35 0.58 0.70 0.76 0.83 0.85 0.85 0.89 0.96 0.99

GEFSMW_prec_meanprecacc_222.txt.gz
Total_Precipitation_Accumulation
1.40 1.65 1.86 2.07 2.31 2.49 2.61 2.80 3.05 3.36 3.58 3.91 4.22 4.37 4.45 4.63 4.70 4.70 4.76 4.78 4.79 4.92 4.96 4.78 4.74 4.62 4.48 4.29 4.20 4.05 3.84 3.58 3.54 3.40 2.94 2.39 2.07 2.03 1.95 2.00 2.20 2.21 2.12
1.44 1.82 2.14 2.58 2.80 2.86 2.88 3.09 3.42 3.72 3.89 4.28 4.77 5.14 5.26 5.33 5.36 5.33 5.49 5.60 5.62 5.75 5.79 5.74 5.54 5.35 5.08 4.62 4.24 4.08 3.86 3.51 3.60 3.57 3.45 2.78 2.32 1.91 1.58 1.68 1.75 1.83 2.00
1.69 1.97 2.32 2.60 2.75 2.84 2.93 3.10 3.53 3.98 4.42 4.91 5.46 5.89 6.09 6.12 6.00 5.72 5.79 5.91 5.81 5.86 6.00 5.98 5.77 5.44 4.89 4.37 4.20 4.13 3.99 3.77 3.68 3.56 3.65 3.15 2.65 2.24 1.78 1.55 1.46 1.56 1.66
1.67 1.97 2.19 2.45 2.60 2.72 2.94 3.13 3.50 4.14 4.64 5.01 5.67 6.28 6.54 6.72 6.83 6.61 6.29 6.04 5.79 5.64 5.53 5.35 4.97 4.60 4.24 3.96 3.84 3.88 3.74 3.72 3.58 3.50 3.22 2.99 2.72 2.46 2.05 1.65 1.45 1.47 1.50
1.49 1.81 1.94 2.19 2.48 2.58 2.70 2.92 3.42 4.02 4.70 5.33 5.88 6.42 6.84 7.03 7.01 6.62 6.19 5.68 5.30 4.87 4.48 4.13 3.88 3.80 3.61 3.40 3.28 3.27 3.19 3.05 2.98 2.99 2.97 2.92 2.67 2.35 2.12 1.84 1.62 1.60 1.48
1.34 1.46 1.57 1.75 2.07 2.18 2.40 2.70 3.10 3.82 4.53 5.14 5.75 6.22 6.60 6.64 6.31 5.80 5.31 4.97 4.59 4.10 3.62 3.37 3.15 3.02 2.85 2.64 2.51 2.50 2.52 2.61 2.66 2.71 2.71 2.67 2.64 2.47 2.39 2.19 1.93 1.80 1.73
1.20 1.33 1.37 1.51 1.70 1.85 2.14 2.51 3.02 3.62 4.08 4.59 5.11 5.44 5.66 5.73 5.64 5.31 4.90 4.58 4.16 3.72 3.23 2.79 2.59 2.37 2.18 2.07 2.03 1.99 1.98 2.09 2.22 2.34 2.39 2.38 2.33 2.29 2.34 2.39 2.17 1.94 1.81
1.28 1.44 1.54 1.64 1.74 1.84 2.02 2.40 2.85 3.28 3.51 3.74 4.14 4.43 4.57 4.62 4.50 4.26 3.93 3.64 3.36 3.09 2.76 2.30 1.95 1.75 1.63 1.55 1.61 1.64 1.67 1.72 1.80 1.88 2.05 2.07 2.01 2.09 2.18 2.26 2.33 2.24 1.97
1.29 1.46 1.62 1.72 1.81 1.85 2.00 2.15 2.40 2.64 2.88 3.05 3.21 3.34 3.39 3.32 3.22 3.02 2.78 2.58 2.39 2.15 1.98 1.76 1.56 1.43 1.39 1.40 1.43 1.42 1.41 1.49 1.57 1.62 1.73 1.84 1.86 1.91 2.00 2.13 2.24 2.28 2.15
1.34 1.47 1.53 1.61 1.66 1.61 1.68 1.76 1.98 2.10 2.26 2.38 2.41 2.30 2.31 2.30 2.18 2.02 1.92 1.78 1.59 1.47 1.42 1.35 1.33 1.27 1.19 1.23 1.29 1.27 1.25 1.34 1.36 1.36 1.45 1.56 1.64 1.74 1.83 1.96 2.04 2.10 2.06
1.26 1.30 1.34 1.37 1.39 1.31 1.32 1.41 1.56 1.76 1.86 1.85 1.88 1.82 1.75 1.62 1.53 1.43 1.40 1.31 1.22 1.19 1.18 1.18 1.18 1.15 1.13 1.13 1.12 1.09 1.09 1.14 1.27 1.36 1.40 1.46 1.53 1.61 1.63 1.65 1.71 1.84 1.95
1.25 1.19 1.16 1.15 1.15 1.11 1.10 1.18 1.24 1.33 1.37 1.40 1.41 1.39 1.34 1.24 1.20 1.15 1.12 1.13 1.10 1.07 1.10 1.10 1.10 1.13 1.17 1.18 1.12 1.02 1.00 1.07 1.17 1.25 1.30 1.30 1.29 1.36 1.47 1.53 1.52 1.57 1.68
1.30 1.26 1.18 1.12 1.13 1.19 1.20 1.07 1.08 1.12 1.14 1.17 1.17 1.15 1.18 1.16 1.12 1.15 1.15 1.13 1.09 1.07 1.03 0.99 1.03 1.10 1.15 1.13 1.08 1.01 0.98 1.00 1.06 1.09 1.10 1.10 1.13 1.12 1.17 1.25 1.30 1.32 1.34
1.26 1.29 1.32 1.29 1.21 1.20 1.31 1.19 1.07 1.06 1.14 1.11 1.09 1.01 0.97 1.01 1.04 1.06 1.08 1.05 1.01 1.02 1.04 1.02 0.98 0.98 0.94 0.87 0.83 0.82 0.84 0.85 0.86 0.87 0.86 0.92 1.01 1.03 1.05 1.04 1.08 1.11 1.21
1.41 1.37 1.31 1.32 1.26 1.21 1.24 1.21 1.16 1.09 1.27 1.24 1.20 1.10 1.00 1.00 1.02 1.02 0.99 0.95 0.91 0.86 0.87 0.88 0.83 0.76 0.66 0.58 0.57 0.61 0.63 0.66 0.68 0.70 0.68 0.69 0.81 0.90 0.86 0.80 0.89 1.01 1.14
1.62 1.59 1.49 1.47 1.45 1.37 1.34 1.27 1.24 1.21 1.29 1.35 1.41 1.42 1.32 1.26 1.23 1.14 1.01 0.99 0.98 0.90 0.81 0.76 0.74 0.67 0.52 0.51 0.47 0.53 0.61 0.67 0.67 0.70 0.71 0.64 0.67 0.70 0.67 0.65 0.77 0.93 0.97
1.87 1.84 1.77 1.71 1.68 1.64 1.56 1.47 1.37 1.33 1.34 1.41 1.45 1.43 1.41 1.39 1.34 1.18 1.05 1.03 1.00 0.98 0.95 0.84 0.77 0.73 0.65 0.53 0.44 0.48 0.59 0.68 0.68 0.69 0.68 0.59 0.56 0.61 0.62 0.63 0.66 0.73 0.74
1.79 1.80 1.83 1.81 1.79 1.69 1.59 1.51 1.42 1.39 1.40 1.42 1.43 1.40 1.30 1.29 1.22 1.12 1.09 1.05 0.97 0.95 0.93 0.87 0.79 0.70 0.54 0.39 0.34 0.35 0.48 0.63 0.66 0.66 0.66 0.67 0.64 0.59 0.60 0.59 0.62 0.70 0.76
1.90 1.85 1.80 1.71 1.68 1.64 1.57 1.51 1.47 1.45 1.44 1.41 1.33 1.25 1.17 1.15 1.08 1.05 0.99 0.91 0.85 0.83 0.79 0.72 0.67 0.66 0.51 0.32 0.27 0.30 0.49 0.65 0.63 0.59 0.54 0.56 0.60 0.60 0.58 0.61 0.72 0.79 0.85
1.74 1.64 1.49 1.40 1.43 1.47 1.46 1.44 1.42 1.41 1.38 1.18 1.00 0.94 0.96 0.96 0.92 0.87 0.81 0.77 0.75 0.74 0.66 0.59 0.62 0.63 0.58 0.43 0.35 0.37 0.49 0.60 0.57 0.58 0.55 0.50 0.50 0.51 0.52 0.60 0.74 0.83 0.83
1.28 1.21 1.15 1.20 1.28 1.29 1.24 1.24 1.20 1.19 1.13 1.02 0.87 0.84 0.83 0.77 0.75 0.74 0.74 0.71 0.66 0.69 0.67 0.66 0.62 0.56 0.48 0.37 0.32 0.32 0.38 0.50 0.54 0.55 0.59 0.53 0.43 0.40 0.42 0.54 0.62 0.69 0.67
0.94 0.90 0.92 0.99 1.04 1.00 1.00 1.08 1.09 1.01 0.93 0.95 0.88 0.83 0.74 0.64 0.63 0.75 0.74 0.70 0.71 0.74 0.72 0.69 0.62 0.49 0.39 0.29 0.24 0.25 0.29 0.35 0.49 0.58 0.59 0.51 0.41 0.38 0.39 0.48 0.55 0.57 0.66
0.70 0.73 0.75 0.80 0.88 0.89 0.91 0.97 0.98 0.88 0.87 0.93 0.91 0.80 0.68 0.69 0.69 0.74 0.73 0.65 0.63 0.58 0.54 0.52 0.52 0.45 0.37 0.31 0.25 0.26 0.29 0.33 0.41 0.47 0.44 0.39 0.39 0.40 0.52 0.54 0.55 0.65 0.86
0.54 0.61 0.65 0.66 0.73 0.75 0.79 0.86 0.78 0.76 0.90 1.01 0.96 0.81 0.71 0.66 0.61 0.60 0.54 0.50 0.50 0.49 0.46 0.43 0.41 0.39 0.39 0.36 0.34 0.34 0.34 0.36 0.41 0.44 0.43 0.46 0.50 0.54 0.63 0.71 0.82 0.86 0.92
0.54 0.59 0.63 0.62 0.59 0.60 0.66 0.64 0.64 0.76 1.00 0.99 0.88 0.76 0.63 0.56 0.51 0.43 0.36 0.32 0.31 0.30 0.32 0.31 0.29 0.33 0.35 0.31 0.31 0.32 0.32 0.34 0.34 0.35 0.51 0.71 0.77 0.84 0.91 0.93 0.99 1.05 0.99
0.48 0.56 0.57 0.52 0.54 0.58 0.59 0.56 0.58 0.67 0.87 0.90 0.72 0.60 0.51 0.44 0.37 0.33 0.32 0.25 0.20 0.17 0.15 0.16 0.16 0.18 0.20 0.19 0.20 0.23 0.26 0.28 0.31 0.37 0.61 0.73 0.80 0.87 0.89 0.90 0.94 1.01 1.04

GEFSMW_prec_meanprecacc_228.txt.gz
Total_Precipitation_Accumulation
1.55 1.78 1.95 2.17 2.38 2.56 2.70 2.90 3.14 3.43 3.64 3.97 4.29 4.47 4.59 4.74 4.79 4.78 4.82 4.84 4.86 4.97 4.99 4.80 4.77 4.65 4.53 4.33 4.24 4.08 3.87 3.62 3.58 3.45 3.01 2.45 2.11 2.07 1.99 2.04 2.23 2.25 2.14
1.53 1.89 2.20 2.63 2.84 2.94 2.98 3.18 3.50 3.78 3.93 4.32 4.81 5.20 5.34 5.40 5.42 5.41 5.55 5.65 5.68 5.81 5.83 5.78 5.56 5.38 5.11 4.64 4.27 4.11 3.88 3.54 3.63 3.62 3.53 2.85 2.38 1.96 1.62 1.72 1.79 1.87 2.03
1.77 2.02 2.38 2.65 2.79 2.88 3.00 3.16 3.59 4.03 4.46 4.95 5.49 5.91 6.12 6.17 6.05 5.77 5.84 5.97 5.89 5.95 6.08 6.03 5.81 5.48 4.93 4.40 4.23 4.16 4.01 3.79 3.71 3.59 3.73 3.22 2.70 2.29 1.82 1.59 1.50 1.60 1.70
1.74 2.02 2.25 2.52 2.65 2.76 2.99 3.19 3.56 4.19 4.68 5.05 5.70 6.31 6.57 6.78 6.88 6.65 6.33 6.10 5.85 5.73 5.62 5.45 5.06 4.67 4.31 4.01 3.88 3.91 3.77 3.75 3.60 3.52 3.26 3.03 2.75 2.49 2.09 1.69 1.49 1.51 1.54
1.55 1.87 2.00 2.24 2.54 2.64 2.76 3.00 3.51 4.08 4.74 5.36 5.91 6.45 6.89 7.12 7.08 6.66 6.23 5.72 5.35 4.93 4.54 4.19 3.97 3.89 3.69 3.46 3.33 3.31 3.22 3.08 3.00 3.01 2.99 2.95 2.71 2.39 2.15 1.87 1.66 1.63 1.51
1.39 1.53 1.67 1.87 2.17 2.26 2.49 2.82 3.24 3.92 4.60 5.18 5.78 6.24 6.62 6.68 6.36 5.84 5.33 4.99 4.63 4.17 3.68 3.41 3.18 3.06 2.88 2.67 2.53 2.51 2.53 2.62 2.67 2.73 2.73 2.70 2.67 2.51 2.43 2.22 1.96 1.84 1.75
1.26 1.44 1.51 1.66 1.84 1.96 2.22 2.59 3.13 3.74 4.17 4.67 5.17 5.49 5.69 5.75 5.68 5.34 4.92 4.60 4.18 3.76 3.29 2.85 2.62 2.39 2.19 2.08 2.04 2.01 2.00 2.11 2.24 2.35 2.41 2.40 2.35 2.33 2.39 2.45 2.21 1.97 1.84
1.36 1.56 1.67 1.77 1.88 1.98 2.11 2.45 2.89 3.33 3.58 3.83 4.22 4.51 4.62 4.65 4.53 4.30 3.97 3.68 3.39 3.13 2.82 2.37 2.00 1.78 1.67 1.58 1.64 1.67 1.69 1.74 1.82 1.91 2.08 2.09 2.04 2.14 2.24 2.34 2.41 2.29 2.00
1.36 1.54 1.69 1.79 1.88 1.91 2.04 2.18 2.43 2.66 2.89 3.08 3.26 3.40 3.44 3.36 3.24 3.05 2.81 2.61 2.44 2.20 2.05 1.85 1.63 1.49 1.45 1.45 1.48 1.47 1.45 1.53 1.61 1.67 1.77 1.88 1.89 1.95 2.04 2.18 2.29 2.35 2.20
1.37 1.51 1.56 1.63 1.68 1.62 1.71 1.79 2.00 2.13 2.27 2.39 2.44 2.36 2.37 2.32 2.19 2.03 1.93 1.79 1.61 1.49 1.46 1.42 1.42 1.36 1.28 1.31 1.37 1.33 1.31 1.40 1.42 1.41 1.49 1.59 1.67 1.77 1.87 1.99 2.09 2.15 2.12
1.28 1.31 1.35 1.38 1.40 1.33 1.34 1.43 1.58 1.78 1.87 1.86 1.90 1.86 1.79 1.64 1.55 1.45 1.40 1.32 1.23 1.21 1.20 1.21 1.23 1.22 1.21 1.20 1.20 1.16 1.16 1.21 1.33 1.41 1.45 1.50 1.56 1.64 1.67 1.69 1.75 1.88 2.00
1.27 1.20 1.18 1.16 1.17 1.13 1.12 1.19 1.25 1.34 1.38 1.42 1.43 1.42 1.36 1.27 1.23 1.17 1.13 1.15 1.12 1.09 1.12 1.12 1.12 1.16 1.22 1.24 1.17 1.08 1.06 1.12 1.22 1.29 1.35 1.35 1.34 1.40 1.51 1.58 1.57 1.62 1.73
1.32 1.27 1.20 1.13 1.16 1.24 1.23 1.09 1.09 1.13 1.15 1.18 1.19 1.17 1.21 1.18 1.15 1.17 1.17 1.15 1.11 1.09 1.05 1.01 1.04 1.12 1.16 1.16 1.11 1.05 1.02 1.03 1.09 1.13 1.14 1.15 1.17 1.17 1.22 1.29 1.36 1.37 1.39
1.29 1.32 1.34 1.31 1.23 1.25 1.36 1.22 1.08 1.07 1.14 1.12 1.10 1.02 0.99 1.03 1.06 1.08 1.10 1.06 1.02 1.03 1.05 1.04 0.99 0.99 0.95 0.89 0.84 0.84 0.88 0.87 0.87 0.89 0.89 0.95 1.04 1.06 1.08 1.07 1.11 1.14 1.25
1.44 1.41 1.35 1.34 1.27 1.22 1.26 1.23 1.17 1.10 1.27 1.24 1.20 1.11 1.01 1.01 1.04 1.04 1.01 0.96 0.92 0.87 0.87 0.89 0.84 0.77 0.67 0.59 0.58 0.62 0.65 0.69 0.69 0.72 0.70 0.71 0.83 0.91 0.88 0.81 0.91 1.03 1.16
1.63 1.60 1.51 1.49 1.47 1.39 1.35 1.28 1.25 1.22 1.30 1.36 1.42 1.44 1.33 1.27 1.24 1.14 1.01 0.99 0.98 0.91 0.81 0.76 0.74 0.67 0.53 0.52 0.48 0.54 0.63 0.70 0.69 0.71 0.72 0.66 0.69 0.71 0.67 0.66 0.78 0.95 0.99
1.87 1.85 1.79 1.72 1.71 1.66 1.57 1.48 1.38 1.35 1.35 1.42 1.46 1.44 1.42 1.40 1.36 1.19 1.06 1.04 1.01 0.99 0.96 0.85 0.77 0.74 0.66 0.53 0.45 0.49 0.61 0.70 0.71 0.70 0.69 0.60 0.56 0.62 0.63 0.64 0.68 0.75 0.76
1.80 1.81 1.84 1.82 1.81 1.70 1.60 1.52 1.44 1.42 1.43 1.44 1.45 1.41 1.31 1.31 1.24 1.14 1.11 1.05 0.98 0.96 0.94 0.87 0.79 0.70 0.54 0.40 0.35 0.36 0.50 0.65 0.69 0.68 0.67 0.68 0.65 0.60 0.61 0.60 0.64 0.73 0.79
1.91 1.86 1.82 1.72 1.69 1.65 1.58 1.51 1.49 1.47 1.47 1.44 1.36 1.28 1.20 1.18 1.11 1.07 1.01 0.93 0.86 0.84 0.80 0.73 0.68 0.67 0.53 0.33 0.28 0.31 0.49 0.66 0.65 0.61 0.55 0.57 0.61 0.61 0.59 0.63 0.76 0.82 0.87
1.75 1.65 1.50 1.41 1.44 1.48 1.46 1.45 1.43 1.42 1.39 1.20 1.02 0.96 0.99 0.99 0.95 0.89 0.83 0.79 0.77 0.76 0.67 0.60 0.63 0.63 0.59 0.43 0.36 0.38 0.49 0.61 0.59 0.60 0.57 0.52 0.52 0.53 0.55 0.64 0.78 0.85 0.85
1.30 1.22 1.16 1.21 1.29 1.30 1.25 1.25 1.20 1.20 1.15 1.03 0.89 0.85 0.85 0.81 0.78 0.77 0.77 0.73 0.68 0.70 0.68 0.67 0.63 0.57 0.49 0.38 0.33 0.34 0.39 0.51 0.56 0.57 0.61 0.55 0.45 0.42 0.46 0.58 0.66 0.71 0.69
0.96 0.92 0.94 1.01 1.05 1.01 1.02 1.09 1.10 1.02 0.95 0.97 0.90 0.85 0.76 0.66 0.66 0.78 0.77 0.73 0.73 0.75 0.73 0.70 0.63 0.50 0.41 0.32 0.26 0.26 0.31 0.38 0.52 0.61 0.62 0.55 0.46 0.42 0.44 0.52 0.58 0.59 0.69
0.72 0.75 0.77 0.82 0.91 0.93 0.95 1.00 1.00 0.90 0.89 0.95 0.93 0.81 0.69 0.71 0.70 0.76 0.75 0.69 0.67 0.62 0.57 0.55 0.55 0.48 0.40 0.33 0.27 0.29 0.33 0.39 0.46 0.53 0.49 0.45 0.45 0.46 0.56 0.58 0.59 0.69 0.90
0.56 0.64 0.68 0.68 0.77 0.80 0.83 0.89 0.82 0.80 0.94 1.04 0.98 0.84 0.73 0.67 0.63 0.62 0.57 0.54 0.54 0.52 0.50 0.47 0.44 0.42 0.41 0.38 0.36 0.37 0.37 0.39 0.44 0.48 0.50 0.54 0.57 0.60 0.69 0.78 0.87 0.91 0.97
0.57 0.60 0.65 0.64 0.61 0.63 0.69 0.67 0.67 0.79 1.03 1.01 0.90 0.78 0.65 0.57 0.53 0.44 0.38 0.35 0.34 0.33 0.36 0.35 0.32 0.36 0.37 0.33 0.33 0.33 0.33 0.35 0.35 0.38 0.56 0.77 0.81 0.87 0.94 0.97 1.02 1.08 1.01
0.51 0.58 0.59 0.54 0.55 0.60 0.62 0.59 0.60 0.69 0.90 0.92 0.74 0.61 0.53 0.46 0.39 0.35 0.34 0.27 0.21 0.19 0.18 0.18 0.19 0.20 0.22 0.20 0.22 0.25 0.27 0.30 0.33 0.39 0.65 0.77 0.82 0.89 0.91 0.92 0.96 1.02 1.06

GEFSMW_prec_meanprecacc_234.txt.gz
Total_Precipitation_Accumulation
1.59 1.81 2.00 2.21 2.45 2.62 2.76 2.97 3.19 3.48 3.68 4.02 4.34 4.53 4.66 4.83 4.86 4.84 4.86 4.88 4.89 5.00 5.03 4.83 4.79 4.69 4.57 4.37 4.27 4.11 3.89 3.64 3.61 3.49 3.06 2.49 2.14 2.09 2.00 2.05 2.25 2.27 2.16
1.57 1.93 2.26 2.70 2.93 3.01 3.06 3.27 3.57 3.83 3.98 4.37 4.86 5.25 5.38 5.46 5.49 5.47 5.60 5.68 5.71 5.85 5.87 5.81 5.59 5.41 5.14 4.66 4.29 4.12 3.90 3.55 3.65 3.64 3.57 2.90 2.43 1.99 1.63 1.73 1.81 1.89 2.05
1.81 2.06 2.45 2.75 2.90 2.98 3.09 3.27 3.70 4.10 4.51 4.99 5.54 5.95 6.15 6.18 6.07 5.80 5.88 6.00 5.91 5.98 6.12 6.07 5.85 5.53 4.98 4.43 4.25 4.18 4.03 3.81 3.73 3.61 3.74 3.24 2.72 2.31 1.84 1.61 1.52 1.62 1.72
1.78 2.07 2.31 2.60 2.75 2.86 3.08 3.28 3.66 4.27 4.74 5.10 5.74 6.34 6.59 6.79 6.89 6.66 6.35 6.11 5.87 5.75 5.69 5.52 5.11 4.72 4.36 4.06 3.92 3.95 3.81 3.79 3.63 3.54 3.27 3.04 2.76 2.50 2.10 1.71 1.51 1.52 1.55
1.58 1.91 2.05 2.33 2.65 2.75 2.84 3.07 3.59 4.16 4.81 5.43 5.96 6.50 6.92 7.15 7.10 6.68 6.24 5.73 5.37 4.95 4.57 4.25 4.02 3.94 3.74 3.52 3.39 3.36 3.26 3.11 3.02 3.03 3.01 2.96 2.72 2.39 2.16 1.88 1.67 1.65 1.52
1.42 1.57 1.71 1.93 2.30 2.40 2.60 2.92 3.34 4.00 4.67 5.25 5.84 6.30 6.67 6.73 6.40 5.87 5.35 5.01 4.65 4.18 3.70 3.44 3.23 3.10 2.92 2.71 2.58 2.55 2.57 2.65 2.70 2.75 2.75 2.71 2.68 2.53 2.44 2.22 1.96 1.84 1.76
1.29 1.47 1.55 1.71 1.94 2.10 2.35 2.71 3.24 3.84 4.26 4.74 5.23 5.55 5.76 5.82 5.73 5.38 4.94 4.61 4.19 3.78 3.31 2.88 2.66 2.43 2.22 2.11 2.07 2.03 2.02 2.13 2.26 2.38 2.43 2.43 2.37 2.34 2.40 2.46 2.22 1.98 1.85
1.39 1.58 1.70 1.80 1.94 2.06 2.22 2.56 2.99 3.43 3.66 3.90 4.30 4.58 4.70 4.73 4.59 4.34 3.99 3.69 3.40 3.15 2.85 2.41 2.04 1.83 1.70 1.60 1.67 1.70 1.71 1.76 1.85 1.94 2.11 2.12 2.07 2.16 2.25 2.35 2.42 2.30 2.01
1.38 1.56 1.71 1.81 1.90 1.94 2.09 2.24 2.51 2.75 2.97 3.15 3.35 3.49 3.51 3.42 3.30 3.09 2.83 2.62 2.45 2.22 2.07 1.87 1.65 1.52 1.48 1.49 1.52 1.51 1.49 1.57 1.65 1.71 1.82 1.92 1.92 1.98 2.06 2.19 2.31 2.38 2.23
1.38 1.52 1.57 1.64 1.70 1.65 1.74 1.83 2.05 2.18 2.33 2.44 2.49 2.41 2.42 2.36 2.23 2.06 1.95 1.80 1.63 1.51 1.49 1.45 1.44 1.38 1.31 1.34 1.41 1.36 1.36 1.46 1.48 1.46 1.54 1.64 1.71 1.81 1.91 2.03 2.12 2.18 2.16
1.29 1.32 1.36 1.39 1.42 1.35 1.35 1.45 1.61 1.81 1.90 1.89 1.93 1.90 1.82 1.66 1.57 1.47 1.42 1.33 1.24 1.22 1.22 1.24 1.26 1.26 1.24 1.23 1.24 1.21 1.21 1.27 1.41 1.49 1.52 1.58 1.62 1.69 1.70 1.73 1.78 1.90 2.02
1.28 1.21 1.18 1.16 1.17 1.14 1.13 1.20 1.27 1.36 1.39 1.43 1.45 1.46 1.38 1.28 1.24 1.19 1.15 1.16 1.13 1.10 1.13 1.15 1.15 1.19 1.25 1.27 1.21 1.11 1.10 1.18 1.29 1.36 1.43 1.43 1.40 1.45 1.55 1.61 1.60 1.65 1.76
1.33 1.28 1.20 1.14 1.17 1.25 1.24 1.10 1.11 1.15 1.16 1.19 1.20 1.19 1.22 1.19 1.16 1.18 1.18 1.16 1.12 1.10 1.06 1.02 1.06 1.14 1.19 1.19 1.16 1.09 1.07 1.08 1.14 1.19 1.20 1.20 1.22 1.21 1.25 1.32 1.38 1.39 1.42
1.30 1.33 1.35 1.31 1.23 1.26 1.37 1.23 1.09 1.08 1.15 1.13 1.11 1.03 1.00 1.06 1.09 1.10 1.11 1.07 1.03 1.04 1.06 1.05 1.00 1.00 0.96 0.90 0.87 0.88 0.91 0.90 0.90 0.92 0.93 0.99 1.08 1.10 1.12 1.10 1.14 1.17 1.29
1.46 1.42 1.35 1.35 1.27 1.23 1.27 1.25 1.18 1.11 1.28 1.25 1.21 1.11 1.02 1.04 1.08 1.06 1.02 0.98 0.94 0.88 0.88 0.90 0.85 0.78 0.67 0.60 0.59 0.64 0.67 0.70 0.71 0.73 0.72 0.73 0.87 0.96 0.93 0.86 0.96 1.08 1.21
1.63 1.61 1.52 1.50 1.48 1.40 1.36 1.31 1.28 1.23 1.31 1.36 1.42 1.44 1.33 1.28 1.26 1.16 1.03 1.01 1.00 0.92 0.82 0.77 0.75 0.68 0.53 0.52 0.50 0.55 0.64 0.71 0.70 0.72 0.73 0.67 0.71 0.75 0.72 0.71 0.83 0.99 1.03
1.88 1.86 1.79 1.73 1.71 1.67 1.58 1.48 1.40 1.36 1.36 1.42 1.46 1.44 1.42 1.41 1.36 1.20 1.06 1.05 1.03 1.00 0.96 0.85 0.78 0.75 0.66 0.54 0.46 0.50 0.62 0.71 0.72 0.71 0.70 0.61 0.58 0.65 0.66 0.67 0.71 0.78 0.79
1.82 1.82 1.85 1.83 1.82 1.71 1.61 1.53 1.45 1.43 1.44 1.45 1.45 1.41 1.31 1.31 1.24 1.15 1.12 1.06 0.99 0.97 0.94 0.88 0.80 0.72 0.56 0.41 0.36 0.37 0.51 0.66 0.70 0.69 0.69 0.70 0.66 0.62 0.63 0.62 0.65 0.74 0.80
1.92 1.88 1.83 1.74 1.70 1.66 1.59 1.52 1.50 1.47 1.47 1.45 1.37 1.29 1.20 1.18 1.11 1.08 1.02 0.94 0.87 0.85 0.81 0.74 0.69 0.68 0.54 0.35 0.29 0.33 0.51 0.67 0.66 0.62 0.57 0.59 0.63 0.62 0.61 0.65 0.77 0.83 0.88
1.76 1.66 1.52 1.42 1.46 1.50 1.48 1.46 1.44 1.43 1.40 1.21 1.03 0.97 0.99 0.99 0.95 0.90 0.84 0.80 0.78 0.77 0.69 0.61 0.63 0.65 0.60 0.44 0.37 0.39 0.50 0.61 0.60 0.61 0.58 0.53 0.53 0.54 0.56 0.65 0.79 0.86 0.86
1.30 1.23 1.17 1.23 1.31 1.33 1.27 1.26 1.21 1.21 1.16 1.05 0.91 0.88 0.87 0.81 0.78 0.77 0.78 0.74 0.70 0.72 0.71 0.69 0.64 0.59 0.51 0.40 0.34 0.34 0.40 0.51 0.56 0.58 0.62 0.56 0.47 0.45 0.48 0.59 0.67 0.72 0.71
0.97 0.93 0.95 1.02 1.07 1.03 1.03 1.10 1.11 1.04 0.97 0.99 0.93 0.88 0.79 0.68 0.67 0.79 0.78 0.74 0.76 0.78 0.75 0.72 0.65 0.52 0.43 0.34 0.28 0.28 0.33 0.40 0.53 0.62 0.63 0.56 0.47 0.43 0.46 0.54 0.60 0.62 0.71
0.73 0.77 0.78 0.84 0.93 0.95 0.97 1.01 1.01 0.92 0.91 0.97 0.96 0.84 0.72 0.73 0.72 0.78 0.77 0.71 0.69 0.65 0.60 0.58 0.58 0.51 0.42 0.35 0.29 0.31 0.36 0.42 0.48 0.55 0.51 0.47 0.47 0.47 0.57 0.60 0.61 0.70 0.92
0.59 0.67 0.71 0.72 0.79 0.82 0.85 0.91 0.84 0.82 0.97 1.08 1.01 0.87 0.77 0.71 0.68 0.66 0.60 0.57 0.57 0.55 0.52 0.50 0.48 0.45 0.43 0.40 0.38 0.39 0.39 0.41 0.46 0.50 0.51 0.55 0.59 0.62 0.70 0.79 0.89 0.93 0.99
0.63 0.66 0.70 0.68 0.65 0.66 0.71 0.69 0.69 0.82 1.06 1.04 0.93 0.81 0.68 0.61 0.58 0.51 0.45 0.41 0.40 0.38 0.39 0.37 0.34 0.38 0.38 0.35 0.35 0.35 0.35 0.37 0.37 0.39 0.57 0.78 0.83 0.89 0.96 0.99 1.04 1.10 1.04
0.56 0.66 0.64 0.57 0.58 0.62 0.64 0.60 0.61 0.71 0.93 0.95 0.76 0.64 0.55 0.48 0.41 0.37 0.37 0.30 0.25 0.23 0.20 0.19 0.19 0.21 0.22 0.21 0.22 0.25 0.28 0.31 0.33 0.40 0.65 0.77 0.83 0.91 0.93 0.94 0.98 1.04 1.07

GEFSMW_prec_meanprecacc_240.txt.gz
Total_Precipitation_Accumulation
1.59 1.82 2.01 2.23 2.46 2.63 2.77 2.98 3.21 3.49 3.69 4.03 4.35 4.55 4.69 4.86 4.90 4.87 4.91 4.92 4.94 5.06 5.08 4.88 4.83 4.73 4.60 4.39 4.30 4.14 3.93 3.68 3.66 3.54 3.10 2.52 2.17 2.11 2.03 2.07 2.28 2.30 2.18
1.58 1.94 2.27 2.70 2.94 3.03 3.08 3.28 3.58 3.85 4.00 4.38 4.87 5.27 5.42 5.51 5.54 5.52 5.64 5.71 5.75 5.90 5.93 5.87 5.66 5.48 5.19 4.70 4.33 4.16 3.93 3.58 3.68 3.70 3.62 2.94 2.46 2.01 1.65 1.75 1.82 1.91 2.07
1.83 2.07 2.46 2.76 2.91 3.00 3.12 3.29 3.73 4.13 4.54 5.02 5.57 5.98 6.18 6.21 6.10 5.83 5.92 6.04 5.95 6.02 6.16 6.11 5.90 5.59 5.05 4.49 4.30 4.23 4.07 3.84 3.77 3.66 3.80 3.28 2.75 2.33 1.86 1.62 1.54 1.65 1.75
1.79 2.08 2.32 2.61 2.76 2.89 3.12 3.33 3.71 4.33 4.79 5.14 5.77 6.36 6.62 6.81 6.91 6.69 6.38 6.16 5.92 5.80 5.73 5.56 5.14 4.76 4.41 4.12 3.98 4.00 3.87 3.85 3.68 3.60 3.31 3.07 2.79 2.53 2.13 1.73 1.52 1.55 1.57
1.59 1.92 2.07 2.34 2.67 2.77 2.87 3.12 3.66 4.22 4.87 5.47 5.99 6.53 6.96 7.18 7.13 6.71 6.28 5.77 5.40 4.98 4.60 4.28 4.06 3.98 3.78 3.57 3.44 3.42 3.32 3.16 3.07 3.08 3.05 2.99 2.75 2.42 2.19 1.91 1.69 1.67 1.54
1.43 1.58 1.73 1.95 2.31 2.42 2.63 2.95 3.39 4.08 4.73 5.30 5.87 6.33 6.72 6.76 6.44 5.90 5.39 5.05 4.68 4.21 3.72 3.46 3.25 3.13 2.96 2.76 2.64 2.61 2.62 2.70 2.74 2.79 2.79 2.75 2.71 2.55 2.47 2.26 2.00 1.87 1.78
1.30 1.48 1.57 1.73 1.96 2.13 2.40 2.76 3.29 3.91 4.31 4.78 5.27 5.59 5.80 5.86 5.77 5.42 4.98 4.64 4.23 3.80 3.33 2.90 2.68 2.45 2.25 2.14 2.12 2.09 2.09 2.19 2.31 2.42 2.47 2.46 2.40 2.37 2.44 2.50 2.26 2.02 1.88
1.40 1.60 1.72 1.83 1.96 2.09 2.26 2.61 3.04 3.48 3.70 3.94 4.33 4.61 4.73 4.77 4.64 4.39 4.04 3.74 3.44 3.18 2.87 2.44 2.08 1.86 1.73 1.63 1.70 1.73 1.75 1.81 1.90 1.98 2.15 2.16 2.10 2.20 2.30 2.39 2.47 2.35 2.04
1.39 1.58 1.73 1.84 1.93 1.96 2.12 2.28 2.55 2.80 3.02 3.20 3.40 3.53 3.54 3.45 3.35 3.15 2.90 2.68 2.50 2.25 2.10 1.90 1.69 1.57 1.52 1.52 1.55 1.54 1.52 1.60 1.69 1.75 1.86 1.96 1.96 2.02 2.11 2.24 2.36 2.43 2.27
1.39 1.54 1.60 1.67 1.71 1.66 1.75 1.86 2.08 2.23 2.38 2.49 2.54 2.46 2.46 2.40 2.27 2.10 2.01 1.87 1.68 1.55 1.53 1.48 1.48 1.42 1.35 1.40 1.46 1.41 1.39 1.50 1.52 1.51 1.59 1.68 1.75 1.86 1.95 2.08 2.17 2.24 2.22
1.30 1.34 1.38 1.41 1.44 1.37 1.37 1.47 1.64 1.84 1.95 1.95 1.98 1.96 1.87 1.70 1.60 1.50 1.45 1.38 1.29 1.27 1.27 1.28 1.29 1.28 1.27 1.28 1.29 1.26 1.27 1.33 1.46 1.55 1.59 1.63 1.67 1.75 1.76 1.79 1.84 1.97 2.09
1.29 1.22 1.20 1.20 1.21 1.16 1.14 1.21 1.28 1.37 1.42 1.48 1.50 1.51 1.43 1.32 1.27 1.22 1.18 1.19 1.15 1.12 1.16 1.17 1.17 1.22 1.28 1.31 1.25 1.16 1.14 1.23 1.34 1.43 1.50 1.49 1.46 1.52 1.62 1.68 1.67 1.72 1.83
1.35 1.30 1.21 1.14 1.17 1.26 1.24 1.11 1.12 1.17 1.17 1.21 1.22 1.22 1.25 1.22 1.19 1.20 1.21 1.19 1.14 1.11 1.08 1.04 1.08 1.16 1.22 1.23 1.20 1.14 1.12 1.13 1.20 1.24 1.25 1.27 1.30 1.28 1.32 1.38 1.44 1.46 1.49
1.32 1.36 1.39 1.34 1.25 1.26 1.38 1.24 1.10 1.09 1.16 1.15 1.12 1.05 1.03 1.08 1.11 1.12 1.13 1.09 1.05 1.07 1.09 1.07 1.03 1.03 0.99 0.93 0.91 0.91 0.95 0.95 0.95 0.97 0.99 1.06 1.16 1.18 1.21 1.18 1.23 1.26 1.37
1.47 1.44 1.39 1.38 1.31 1.25 1.29 1.27 1.20 1.12 1.30 1.27 1.23 1.13 1.03 1.05 1.10 1.08 1.04 0.99 0.95 0.90 0.91 0.92 0.87 0.80 0.69 0.61 0.61 0.66 0.70 0.74 0.75 0.77 0.75 0.77 0.91 1.01 0.99 0.92 1.03 1.16 1.31
1.65 1.62 1.54 1.52 1.51 1.41 1.38 1.32 1.30 1.25 1.33 1.39 1.44 1.45 1.34 1.28 1.28 1.19 1.05 1.03 1.02 0.93 0.84 0.79 0.77 0.70 0.54 0.53 0.50 0.58 0.68 0.75 0.74 0.76 0.76 0.69 0.73 0.77 0.75 0.74 0.87 1.06 1.10
1.90 1.87 1.81 1.74 1.73 1.69 1.60 1.51 1.43 1.39 1.40 1.45 1.48 1.46 1.43 1.41 1.38 1.22 1.08 1.08 1.05 1.02 0.98 0.87 0.81 0.77 0.69 0.56 0.48 0.52 0.66 0.76 0.77 0.76 0.74 0.64 0.60 0.67 0.69 0.70 0.74 0.82 0.83
1.84 1.84 1.87 1.83 1.82 1.71 1.62 1.55 1.48 1.46 1.49 1.49 1.48 1.43 1.33 1.32 1.25 1.16 1.13 1.09 1.03 1.01 0.96 0.90 0.82 0.74 0.58 0.43 0.38 0.41 0.54 0.70 0.75 0.73 0.72 0.73 0.69 0.65 0.66 0.65 0.69 0.78 0.83
1.96 1.91 1.86 1.76 1.71 1.67 1.59 1.52 1.51 1.51 1.51 1.48 1.38 1.30 1.21 1.19 1.11 1.09 1.03 0.96 0.91 0.90 0.85 0.76 0.71 0.69 0.56 0.37 0.31 0.35 0.52 0.69 0.69 0.65 0.59 0.62 0.65 0.65 0.63 0.67 0.80 0.87 0.92
1.81 1.69 1.54 1.44 1.49 1.53 1.50 1.47 1.45 1.44 1.43 1.22 1.04 0.99 1.01 1.00 0.96 0.91 0.86 0.82 0.81 0.80 0.72 0.63 0.66 0.67 0.62 0.47 0.39 0.41 0.52 0.64 0.63 0.63 0.60 0.55 0.55 0.56 0.57 0.67 0.81 0.90 0.90
1.32 1.24 1.18 1.24 1.32 1.35 1.29 1.29 1.23 1.23 1.19 1.08 0.94 0.91 0.89 0.83 0.79 0.79 0.79 0.76 0.72 0.75 0.74 0.72 0.67 0.61 0.54 0.43 0.37 0.38 0.43 0.55 0.59 0.60 0.63 0.58 0.48 0.45 0.49 0.61 0.68 0.75 0.74
0.98 0.93 0.96 1.03 1.08 1.04 1.05 1.13 1.13 1.05 0.99 1.02 0.95 0.90 0.81 0.70 0.69 0.81 0.80 0.77 0.78 0.80 0.77 0.74 0.68 0.55 0.47 0.38 0.32 0.32 0.37 0.45 0.57 0.66 0.66 0.58 0.48 0.44 0.46 0.54 0.61 0.63 0.73
0.75 0.78 0.79 0.84 0.94 0.97 0.99 1.04 1.03 0.93 0.93 1.00 0.98 0.86 0.73 0.75 0.74 0.80 0.79 0.74 0.73 0.68 0.62 0.60 0.60 0.54 0.46 0.38 0.32 0.34 0.39 0.45 0.51 0.58 0.55 0.50 0.50 0.49 0.59 0.61 0.62 0.72 0.94
0.61 0.68 0.72 0.72 0.80 0.83 0.86 0.92 0.85 0.84 0.99 1.10 1.04 0.89 0.78 0.73 0.70 0.68 0.62 0.58 0.59 0.57 0.54 0.52 0.51 0.48 0.47 0.43 0.40 0.42 0.41 0.43 0.47 0.51 0.53 0.57 0.61 0.64 0.72 0.81 0.91 0.95 1.01
0.64 0.67 0.71 0.70 0.66 0.67 0.73 0.70 0.71 0.84 1.08 1.06 0.95 0.83 0.69 0.63 0.61 0.54 0.47 0.43 0.41 0.39 0.40 0.39 0.37 0.42 0.42 0.37 0.37 0.37 0.37 0.38 0.38 0.41 0.58 0.80 0.85 0.92 0.98 1.02 1.06 1.11 1.05
0.57 0.67 0.66 0.59 0.60 0.66 0.68 0.63 0.63 0.73 0.94 0.97 0.79 0.66 0.56 0.49 0.42 0.38 0.38 0.31 0.26 0.24 0.22 0.22 0.23 0.24 0.25 0.23 0.24 0.27 0.30 0.33 0.35 0.42 0.68 0.80 0.85 0.93 0.96 0.96 0.99 1.06 1.09

GEFSMW_prec_meanprecacc_246.txt.gz
Total_Precipitation_Accumulation
1.61 1.83 2.02 2.23 2.47 2.65 2.79 3.01 3.24 3.56 3.77 4.09 4.40 4.60 4.73 4.90 4.95 4.93 4.97 4.99 4.99 5.10 5.14 4.92 4.89 4.80 4.68 4.48 4.39 4.24 4.01 3.76 3.75 3.63 3.18 2.59 2.22 2.15 2.06 2.12 2.37 2.40 2.27
1.59 1.95 2.28 2.71 2.94 3.04 3.09 3.31 3.62 3.89 4.04 4.42 4.92 5.33 5.47 5.54 5.58 5.57 5.71 5.79 5.81 5.94 5.95 5.91 5.70 5.53 5.27 4.79 4.42 4.25 4.01 3.65 3.77 3.80 3.72 3.02 2.53 2.06 1.68 1.78 1.86 1.95 2.14
1.84 2.08 2.47 2.77 2.92 3.02 3.13 3.32 3.77 4.17 4.59 5.06 5.62 6.05 6.24 6.26 6.15 5.88 5.98 6.10 5.99 6.06 6.19 6.14 5.93 5.64 5.11 4.57 4.39 4.33 4.15 3.91 3.84 3.74 3.90 3.36 2.82 2.38 1.90 1.65 1.56 1.68 1.78
1.80 2.09 2.33 2.62 2.77 2.90 3.13 3.35 3.75 4.37 4.84 5.19 5.82 6.42 6.67 6.87 6.96 6.75 6.44 6.21 5.96 5.83 5.77 5.59 5.18 4.81 4.46 4.18 4.04 4.09 3.96 3.93 3.76 3.67 3.39 3.15 2.87 2.58 2.18 1.76 1.55 1.58 1.61
1.59 1.93 2.07 2.35 2.68 2.78 2.89 3.14 3.69 4.28 4.94 5.54 6.05 6.59 7.03 7.25 7.20 6.79 6.35 5.83 5.44 5.01 4.64 4.32 4.11 4.02 3.83 3.63 3.51 3.51 3.41 3.26 3.17 3.16 3.11 3.04 2.82 2.48 2.24 1.96 1.75 1.72 1.56
1.43 1.58 1.74 1.97 2.33 2.43 2.64 2.97 3.41 4.13 4.81 5.40 5.94 6.40 6.78 6.83 6.51 5.98 5.45 5.09 4.73 4.24 3.76 3.50 3.30 3.18 3.01 2.81 2.70 2.68 2.70 2.78 2.83 2.89 2.87 2.81 2.77 2.60 2.51 2.29 2.04 1.92 1.81
1.31 1.49 1.59 1.76 1.99 2.16 2.42 2.78 3.33 3.97 4.39 4.86 5.34 5.65 5.86 5.93 5.84 5.49 5.04 4.70 4.29 3.86 3.39 2.96 2.74 2.51 2.31 2.20 2.18 2.16 2.16 2.27 2.39 2.49 2.53 2.52 2.46 2.43 2.50 2.56 2.31 2.07 1.92
1.41 1.62 1.74 1.86 2.00 2.12 2.29 2.64 3.09 3.54 3.78 3.99 4.38 4.66 4.77 4.83 4.69 4.44 4.08 3.80 3.51 3.24 2.93 2.49 2.14 1.92 1.78 1.68 1.77 1.80 1.82 1.88 1.97 2.05 2.22 2.22 2.16 2.26 2.36 2.45 2.52 2.40 2.09
1.40 1.61 1.77 1.88 1.98 2.00 2.16 2.34 2.60 2.84 3.07 3.24 3.43 3.58 3.58 3.50 3.39 3.19 2.94 2.74 2.55 2.29 2.15 1.95 1.74 1.61 1.57 1.57 1.60 1.59 1.58 1.67 1.76 1.82 1.95 2.03 2.02 2.09 2.17 2.31 2.43 2.49 2.32
1.40 1.56 1.64 1.70 1.75 1.69 1.79 1.92 2.14 2.27 2.43 2.53 2.58 2.50 2.51 2.45 2.31 2.15 2.05 1.91 1.72 1.59 1.57 1.53 1.52 1.45 1.39 1.44 1.52 1.46 1.45 1.56 1.58 1.58 1.68 1.77 1.82 1.93 2.02 2.14 2.24 2.30 2.26
1.30 1.35 1.40 1.44 1.46 1.39 1.40 1.51 1.68 1.88 1.99 1.99 2.02 1.99 1.92 1.74 1.64 1.54 1.49 1.42 1.33 1.31 1.31 1.32 1.33 1.32 1.30 1.32 1.34 1.31 1.32 1.38 1.53 1.61 1.65 1.71 1.75 1.82 1.81 1.83 1.89 2.02 2.14
1.30 1.23 1.22 1.23 1.23 1.19 1.17 1.24 1.32 1.41 1.46 1.52 1.54 1.54 1.47 1.37 1.32 1.25 1.21 1.21 1.19 1.18 1.20 1.20 1.20 1.24 1.31 1.34 1.29 1.20 1.20 1.28 1.41 1.50 1.58 1.57 1.55 1.61 1.68 1.73 1.72 1.77 1.89
1.36 1.30 1.22 1.17 1.20 1.28 1.28 1.14 1.14 1.20 1.20 1.23 1.25 1.25 1.31 1.27 1.23 1.25 1.25 1.23 1.19 1.18 1.15 1.10 1.13 1.20 1.25 1.26 1.23 1.18 1.16 1.18 1.25 1.31 1.33 1.34 1.37 1.34 1.38 1.44 1.50 1.52 1.54
1.35 1.38 1.43 1.37 1.27 1.29 1.40 1.28 1.14 1.13 1.19 1.18 1.15 1.08 1.07 1.12 1.15 1.15 1.16 1.12 1.09 1.13 1.17 1.12 1.08 1.08 1.02 0.96 0.93 0.94 0.99 0.99 1.01 1.04 1.06 1.12 1.21 1.24 1.27 1.26 1.30 1.33 1.45
1.50 1.48 1.44 1.43 1.35 1.29 1.32 1.30 1.23 1.15 1.33 1.31 1.26 1.16 1.06 1.07 1.13 1.11 1.06 1.02 0.99 0.93 0.95 0.96 0.92 0.86 0.74 0.65 0.65 0.70 0.74 0.80 0.82 0.84 0.82 0.82 0.97 1.08 1.05 0.97 1.08 1.22 1.38
1.67 1.66 1.59 1.60 1.60 1.50 1.43 1.36 1.34 1.30 1.38 1.44 1.48 1.48 1.37 1.31 1.31 1.21 1.08 1.07 1.05 0.96 0.87 0.81 0.80 0.74 0.58 0.58 0.55 0.61 0.74 0.82 0.81 0.83 0.83 0.75 0.78 0.81 0.80 0.79 0.92 1.11 1.16
1.91 1.89 1.84 1.79 1.80 1.76 1.66 1.55 1.46 1.43 1.45 1.50 1.51 1.49 1.47 1.45 1.41 1.24 1.11 1.11 1.08 1.05 1.01 0.90 0.84 0.82 0.75 0.61 0.51 0.55 0.70 0.82 0.83 0.83 0.81 0.70 0.64 0.71 0.73 0.74 0.78 0.86 0.87
1.87 1.88 1.91 1.88 1.87 1.77 1.68 1.60 1.52 1.52 1.55 1.53 1.50 1.46 1.35 1.34 1.28 1.19 1.18 1.14 1.08 1.05 1.00 0.93 0.86 0.78 0.62 0.47 0.41 0.43 0.58 0.76 0.80 0.79 0.79 0.80 0.74 0.69 0.70 0.69 0.74 0.83 0.88
1.99 1.96 1.92 1.82 1.77 1.73 1.67 1.60 1.58 1.59 1.60 1.55 1.41 1.31 1.23 1.22 1.15 1.13 1.08 1.02 0.96 0.94 0.88 0.79 0.76 0.74 0.60 0.39 0.33 0.39 0.57 0.73 0.74 0.69 0.63 0.67 0.70 0.68 0.65 0.71 0.85 0.92 0.97
1.83 1.73 1.58 1.49 1.56 1.60 1.57 1.54 1.52 1.50 1.50 1.31 1.10 1.01 1.02 1.02 0.99 0.94 0.90 0.87 0.85 0.85 0.78 0.68 0.70 0.71 0.68 0.50 0.40 0.43 0.55 0.69 0.69 0.68 0.64 0.58 0.57 0.57 0.59 0.70 0.84 0.93 0.94
1.34 1.26 1.20 1.26 1.36 1.40 1.36 1.36 1.30 1.29 1.25 1.15 1.03 0.95 0.91 0.85 0.82 0.82 0.83 0.80 0.76 0.80 0.79 0.78 0.74 0.68 0.59 0.46 0.38 0.39 0.45 0.58 0.64 0.65 0.68 0.61 0.50 0.47 0.50 0.63 0.71 0.78 0.78
1.00 0.95 0.99 1.05 1.10 1.07 1.08 1.17 1.18 1.09 1.02 1.05 1.00 0.95 0.84 0.72 0.71 0.84 0.83 0.80 0.82 0.84 0.82 0.79 0.73 0.61 0.51 0.40 0.33 0.33 0.38 0.46 0.60 0.69 0.70 0.61 0.50 0.46 0.49 0.57 0.63 0.66 0.76
0.78 0.80 0.82 0.88 0.97 0.99 1.01 1.07 1.05 0.96 0.95 1.03 1.01 0.90 0.76 0.78 0.77 0.83 0.83 0.77 0.76 0.71 0.65 0.63 0.63 0.57 0.50 0.42 0.33 0.35 0.40 0.46 0.53 0.61 0.57 0.53 0.51 0.50 0.60 0.63 0.64 0.75 0.97
0.64 0.70 0.74 0.76 0.84 0.86 0.88 0.94 0.87 0.86 1.02 1.13 1.07 0.93 0.81 0.75 0.73 0.72 0.66 0.62 0.62 0.61 0.57 0.55 0.54 0.51 0.50 0.46 0.43 0.44 0.43 0.44 0.50 0.54 0.54 0.59 0.63 0.65 0.74 0.83 0.93 0.97 1.03
0.68 0.71 0.74 0.74 0.71 0.70 0.74 0.72 0.74 0.87 1.12 1.10 0.98 0.86 0.72 0.65 0.63 0.57 0.50 0.45 0.44 0.41 0.42 0.41 0.40 0.44 0.46 0.40 0.39 0.40 0.40 0.41 0.41 0.44 0.61 0.81 0.87 0.94 1.00 1.03 1.07 1.12 1.07
0.60 0.71 0.70 0.65 0.65 0.69 0.71 0.66 0.68 0.80 1.00 1.02 0.83 0.69 0.59 0.52 0.44 0.40 0.39 0.32 0.27 0.24 0.23 0.23 0.24 0.26 0.27 0.25 0.26 0.29 0.33 0.35 0.38 0.44 0.70 0.82 0.87 0.95 0.98 0.98 1.01 1.07 1.10

GEFSMW_prec_meanprecacc_252.txt.gz
Total_Precipitation_Accumulation
1.63 1.85 2.05 2.26 2.49 2.67 2.81 3.03 3.27 3.59 3.82 4.18 4.49 4.69 4.84 4.98 5.00 5.01 5.04 5.03 5.04 5.14 5.19 4.97 4.94 4.85 4.72 4.52 4.45 4.31 4.08 3.82 3.82 3.70 3.23 2.63 2.27 2.20 2.10 2.15 2.39 2.43 2.30
1.61 1.97 2.31 2.76 2.98 3.07 3.11 3.32 3.64 3.95 4.11 4.48 4.98 5.41 5.58 5.63 5.63 5.61 5.76 5.82 5.83 5.95 5.97 5.94 5.72 5.56 5.30 4.82 4.46 4.31 4.08 3.71 3.83 3.85 3.77 3.06 2.57 2.10 1.70 1.81 1.88 1.98 2.19
1.86 2.11 2.51 2.84 2.98 3.06 3.17 3.34 3.79 4.22 4.65 5.12 5.69 6.13 6.35 6.35 6.19 5.90 6.00 6.12 6.00 6.07 6.20 6.15 5.95 5.65 5.14 4.60 4.43 4.37 4.20 3.94 3.88 3.79 3.93 3.40 2.86 2.42 1.92 1.68 1.58 1.70 1.81
1.81 2.11 2.36 2.67 2.82 2.93 3.15 3.36 3.76 4.40 4.87 5.23 5.88 6.49 6.75 6.93 6.99 6.77 6.46 6.24 5.97 5.84 5.77 5.60 5.19 4.82 4.48 4.20 4.07 4.12 4.00 3.98 3.80 3.70 3.41 3.18 2.90 2.63 2.21 1.78 1.56 1.60 1.63
1.60 1.94 2.09 2.38 2.71 2.81 2.90 3.15 3.71 4.30 4.96 5.56 6.08 6.63 7.07 7.30 7.25 6.82 6.37 5.85 5.46 5.02 4.64 4.33 4.11 4.03 3.85 3.65 3.53 3.53 3.45 3.30 3.22 3.19 3.14 3.08 2.84 2.50 2.28 1.98 1.76 1.75 1.60
1.45 1.60 1.77 2.01 2.36 2.46 2.66 2.97 3.43 4.14 4.83 5.41 5.97 6.43 6.81 6.87 6.56 6.01 5.47 5.12 4.74 4.25 3.76 3.50 3.30 3.18 3.02 2.82 2.71 2.70 2.72 2.80 2.87 2.94 2.90 2.83 2.79 2.61 2.53 2.32 2.06 1.96 1.85
1.33 1.52 1.62 1.79 2.02 2.19 2.45 2.80 3.35 4.00 4.42 4.88 5.37 5.69 5.90 5.98 5.89 5.53 5.06 4.72 4.30 3.86 3.40 2.96 2.75 2.52 2.32 2.21 2.20 2.19 2.18 2.29 2.41 2.52 2.58 2.56 2.48 2.45 2.52 2.59 2.34 2.09 1.95
1.43 1.63 1.76 1.89 2.03 2.15 2.32 2.68 3.12 3.57 3.80 4.01 4.41 4.71 4.82 4.87 4.76 4.50 4.12 3.82 3.53 3.25 2.94 2.50 2.15 1.93 1.79 1.69 1.78 1.81 1.84 1.90 2.00 2.09 2.28 2.28 2.20 2.30 2.40 2.51 2.58 2.45 2.13
1.43 1.63 1.80 1.91 2.01 2.03 2.20 2.39 2.65 2.88 3.10 3.27 3.47 3.62 3.63 3.55 3.47 3.24 2.97 2.77 2.57 2.31 2.16 1.97 1.76 1.63 1.59 1.59 1.62 1.61 1.60 1.69 1.79 1.86 2.01 2.12 2.09 2.15 2.22 2.36 2.47 2.52 2.35
1.43 1.59 1.67 1.74 1.78 1.72 1.82 1.95 2.18 2.31 2.47 2.57 2.61 2.54 2.54 2.50 2.36 2.19 2.09 1.94 1.74 1.61 1.58 1.55 1.54 1.48 1.42 1.47 1.55 1.49 1.47 1.58 1.60 1.60 1.71 1.81 1.88 1.98 2.06 2.19 2.28 2.33 2.29
1.34 1.38 1.43 1.47 1.49 1.42 1.43 1.54 1.71 1.92 2.03 2.03 2.06 2.03 1.96 1.80 1.69 1.58 1.53 1.45 1.35 1.33 1.33 1.35 1.36 1.35 1.33 1.34 1.36 1.32 1.33 1.39 1.54 1.63 1.68 1.73 1.79 1.87 1.86 1.87 1.92 2.04 2.17
1.34 1.27 1.27 1.27 1.26 1.22 1.20 1.27 1.35 1.45 1.49 1.56 1.58 1.58 1.51 1.42 1.36 1.30 1.26 1.27 1.24 1.21 1.24 1.24 1.24 1.28 1.34 1.37 1.31 1.22 1.21 1.30 1.42 1.52 1.60 1.60 1.58 1.65 1.73 1.79 1.76 1.80 1.92
1.40 1.35 1.29 1.21 1.22 1.31 1.31 1.17 1.17 1.23 1.23 1.26 1.27 1.28 1.32 1.30 1.26 1.28 1.31 1.30 1.26 1.24 1.20 1.15 1.17 1.23 1.28 1.28 1.24 1.19 1.18 1.20 1.28 1.34 1.36 1.37 1.41 1.38 1.41 1.48 1.55 1.55 1.57
1.39 1.42 1.46 1.40 1.31 1.34 1.45 1.32 1.18 1.18 1.24 1.21 1.17 1.10 1.09 1.14 1.17 1.17 1.19 1.16 1.15 1.19 1.22 1.17 1.12 1.11 1.05 0.98 0.94 0.95 1.00 1.01 1.03 1.07 1.09 1.15 1.24 1.26 1.30 1.28 1.33 1.36 1.48
1.53 1.51 1.47 1.46 1.38 1.33 1.40 1.37 1.27 1.19 1.39 1.36 1.30 1.19 1.08 1.10 1.15 1.13 1.08 1.04 1.01 0.97 1.00 1.02 0.97 0.89 0.77 0.67 0.66 0.72 0.76 0.82 0.84 0.87 0.85 0.85 1.00 1.10 1.08 0.99 1.10 1.25 1.40
1.71 1.69 1.62 1.62 1.63 1.54 1.49 1.43 1.40 1.36 1.44 1.50 1.53 1.52 1.40 1.34 1.33 1.23 1.09 1.08 1.06 0.98 0.91 0.85 0.84 0.77 0.61 0.61 0.58 0.64 0.76 0.84 0.83 0.85 0.85 0.78 0.82 0.86 0.83 0.81 0.94 1.13 1.18
1.97 1.94 1.88 1.82 1.82 1.80 1.71 1.62 1.55 1.51 1.50 1.54 1.56 1.53 1.50 1.47 1.43 1.26 1.13 1.13 1.10 1.07 1.03 0.92 0.87 0.85 0.77 0.64 0.52 0.57 0.72 0.84 0.85 0.85 0.83 0.72 0.68 0.75 0.76 0.77 0.80 0.88 0.90
1.93 1.97 2.03 1.97 1.93 1.82 1.72 1.63 1.57 1.58 1.62 1.60 1.55 1.50 1.38 1.36 1.30 1.21 1.19 1.16 1.10 1.07 1.02 0.95 0.88 0.80 0.64 0.49 0.43 0.45 0.60 0.78 0.82 0.81 0.81 0.83 0.76 0.72 0.72 0.71 0.76 0.84 0.89
2.05 2.02 2.00 1.91 1.86 1.82 1.73 1.65 1.64 1.64 1.65 1.60 1.47 1.36 1.26 1.25 1.18 1.15 1.09 1.03 0.98 0.96 0.90 0.81 0.77 0.76 0.62 0.41 0.35 0.41 0.58 0.76 0.76 0.72 0.66 0.71 0.73 0.71 0.67 0.72 0.86 0.93 0.98
1.86 1.77 1.63 1.55 1.67 1.75 1.71 1.63 1.58 1.58 1.56 1.36 1.16 1.06 1.06 1.06 1.01 0.96 0.92 0.89 0.87 0.86 0.79 0.69 0.72 0.73 0.69 0.52 0.43 0.46 0.57 0.72 0.71 0.71 0.66 0.61 0.60 0.60 0.62 0.71 0.85 0.94 0.95
1.37 1.30 1.25 1.30 1.41 1.47 1.44 1.43 1.36 1.35 1.31 1.20 1.07 0.99 0.95 0.89 0.86 0.85 0.86 0.82 0.78 0.81 0.81 0.80 0.75 0.69 0.60 0.48 0.40 0.41 0.46 0.60 0.65 0.66 0.70 0.63 0.52 0.49 0.52 0.65 0.72 0.80 0.80
1.04 1.00 1.05 1.12 1.16 1.11 1.11 1.21 1.21 1.12 1.05 1.09 1.05 1.03 0.91 0.76 0.76 0.89 0.87 0.83 0.84 0.86 0.83 0.80 0.74 0.62 0.53 0.41 0.34 0.35 0.40 0.47 0.61 0.70 0.71 0.63 0.52 0.48 0.51 0.58 0.65 0.68 0.79
0.85 0.86 0.86 0.92 1.02 1.04 1.05 1.10 1.08 0.97 0.97 1.05 1.04 0.94 0.81 0.82 0.81 0.86 0.86 0.80 0.79 0.74 0.67 0.65 0.65 0.59 0.51 0.43 0.34 0.36 0.41 0.47 0.54 0.61 0.58 0.54 0.52 0.52 0.63 0.66 0.67 0.77 1.00
0.72 0.79 0.81 0.80 0.87 0.89 0.91 0.98 0.90 0.89 1.04 1.14 1.08 0.94 0.83 0.77 0.75 0.75 0.69 0.64 0.64 0.64 0.61 0.58 0.56 0.53 0.52 0.47 0.44 0.45 0.44 0.45 0.50 0.54 0.55 0.60 0.64 0.67 0.76 0.86 0.95 0.99 1.06
0.73 0.77 0.82 0.82 0.77 0.74 0.78 0.76 0.77 0.91 1.14 1.11 0.99 0.87 0.73 0.66 0.64 0.59 0.54 0.50 0.47 0.44 0.45 0.44 0.43 0.46 0.47 0.41 0.40 0.40 0.40 0.41 0.42 0.44 0.61 0.83 0.88 0.95 1.02 1.04 1.09 1.14 1.08
0.65 0.75 0.74 0.70 0.72 0.77 0.78 0.72 0.72 0.83 1.03 1.04 0.85 0.70 0.61 0.54 0.46 0.43 0.43 0.38 0.34 0.31 0.28 0.29 0.29 0.30 0.29 0.27 0.27 0.31 0.33 0.36 0.39 0.45 0.70 0.83 0.89 0.96 0.99 0.99 1.02 1.08 1.11

GEFSMW_prec_meanprecacc_258.txt.gz
Total_Precipitation_Accumulation
1.64 1.87 2.06 2.28 2.51 2.70 2.85 3.07 3.32 3.66 3.92 4.27 4.54 4.73 4.89 5.04 5.06 5.07 5.07 5.07 5.06 5.16 5.20 4.98 4.95 4.86 4.74 4.53 4.47 4.34 4.12 3.87 3.88 3.74 3.26 2.66 2.29 2.22 2.12 2.18 2.42 2.46 2.34
1.64 2.01 2.33 2.78 3.00 3.10 3.15 3.36 3.69 4.01 4.18 4.55 5.04 5.47 5.64 5.68 5.66 5.65 5.80 5.86 5.86 5.98 5.98 5.94 5.73 5.57 5.31 4.84 4.48 4.34 4.12 3.75 3.88 3.90 3.80 3.09 2.59 2.11 1.72 1.82 1.91 2.01 2.22
1.90 2.15 2.53 2.86 3.00 3.10 3.21 3.37 3.83 4.27 4.72 5.19 5.75 6.18 6.39 6.39 6.23 5.93 6.03 6.16 6.04 6.10 6.22 6.17 5.96 5.66 5.15 4.61 4.44 4.39 4.23 3.98 3.91 3.82 3.98 3.43 2.88 2.43 1.93 1.69 1.59 1.72 1.84
1.85 2.15 2.38 2.69 2.84 2.98 3.21 3.40 3.80 4.45 4.94 5.30 5.94 6.54 6.78 6.97 7.04 6.80 6.49 6.27 6.02 5.87 5.80 5.62 5.20 4.83 4.49 4.21 4.08 4.13 4.01 3.99 3.82 3.72 3.44 3.21 2.93 2.65 2.23 1.79 1.57 1.61 1.65
1.62 1.96 2.11 2.41 2.75 2.85 2.96 3.20 3.75 4.35 5.01 5.62 6.14 6.68 7.11 7.34 7.31 6.87 6.40 5.88 5.50 5.06 4.67 4.35 4.13 4.04 3.86 3.65 3.54 3.54 3.46 3.32 3.23 3.21 3.16 3.10 2.85 2.52 2.31 2.00 1.78 1.77 1.61
1.47 1.63 1.80 2.05 2.39 2.51 2.72 3.01 3.46 4.20 4.88 5.46 6.02 6.48 6.85 6.91 6.60 6.07 5.50 5.14 4.78 4.29 3.79 3.52 3.31 3.19 3.03 2.83 2.72 2.71 2.73 2.82 2.89 2.95 2.93 2.86 2.80 2.62 2.55 2.35 2.08 1.97 1.87
1.35 1.55 1.65 1.82 2.05 2.23 2.49 2.83 3.38 4.05 4.48 4.93 5.41 5.73 5.93 6.01 5.93 5.58 5.10 4.74 4.32 3.90 3.42 2.97 2.76 2.53 2.33 2.22 2.20 2.19 2.19 2.30 2.43 2.54 2.59 2.57 2.50 2.46 2.54 2.63 2.36 2.11 1.97
1.44 1.66 1.79 1.92 2.07 2.19 2.37 2.71 3.15 3.63 3.87 4.07 4.45 4.75 4.86 4.90 4.79 4.54 4.15 3.84 3.54 3.27 2.96 2.51 2.16 1.94 1.81 1.70 1.79 1.82 1.85 1.92 2.01 2.10 2.29 2.29 2.21 2.32 2.42 2.53 2.61 2.49 2.16
1.44 1.65 1.83 1.94 2.05 2.07 2.24 2.42 2.69 2.93 3.15 3.33 3.51 3.67 3.67 3.59 3.49 3.27 3.01 2.79 2.60 2.33 2.18 1.98 1.77 1.66 1.62 1.61 1.64 1.63 1.62 1.71 1.80 1.87 2.02 2.13 2.11 2.17 2.25 2.40 2.51 2.56 2.39
1.44 1.61 1.70 1.76 1.81 1.76 1.86 2.00 2.22 2.35 2.50 2.61 2.65 2.58 2.59 2.54 2.39 2.21 2.12 1.97 1.78 1.64 1.61 1.57 1.56 1.51 1.45 1.51 1.59 1.53 1.51 1.61 1.62 1.62 1.72 1.83 1.90 2.01 2.11 2.24 2.34 2.39 2.34
1.37 1.41 1.46 1.50 1.52 1.46 1.47 1.58 1.75 1.95 2.06 2.07 2.09 2.06 1.99 1.82 1.71 1.60 1.55 1.48 1.39 1.37 1.37 1.39 1.40 1.40 1.39 1.40 1.41 1.37 1.38 1.43 1.56 1.66 1.70 1.75 1.80 1.89 1.90 1.92 1.97 2.10 2.22
1.37 1.30 1.29 1.30 1.29 1.25 1.23 1.30 1.37 1.47 1.52 1.60 1.62 1.61 1.54 1.45 1.39 1.33 1.28 1.29 1.27 1.26 1.29 1.30 1.31 1.36 1.42 1.45 1.38 1.28 1.25 1.33 1.45 1.55 1.63 1.63 1.60 1.67 1.77 1.82 1.81 1.86 1.98
1.43 1.37 1.32 1.23 1.26 1.35 1.34 1.19 1.19 1.25 1.24 1.28 1.30 1.30 1.35 1.33 1.29 1.31 1.33 1.32 1.28 1.27 1.24 1.19 1.23 1.30 1.34 1.34 1.29 1.23 1.21 1.23 1.31 1.38 1.40 1.41 1.44 1.41 1.45 1.52 1.58 1.59 1.60
1.41 1.44 1.48 1.42 1.33 1.35 1.46 1.34 1.20 1.19 1.25 1.23 1.19 1.12 1.11 1.17 1.20 1.20 1.21 1.18 1.17 1.22 1.25 1.21 1.16 1.15 1.09 1.03 0.99 0.99 1.03 1.03 1.05 1.10 1.13 1.18 1.26 1.28 1.32 1.30 1.34 1.38 1.50
1.55 1.53 1.49 1.48 1.41 1.35 1.42 1.39 1.28 1.20 1.41 1.39 1.34 1.22 1.11 1.11 1.17 1.16 1.12 1.06 1.03 0.99 1.03 1.05 0.98 0.90 0.78 0.70 0.69 0.74 0.78 0.84 0.86 0.88 0.86 0.87 1.02 1.12 1.10 1.01 1.11 1.26 1.41
1.74 1.72 1.64 1.65 1.66 1.56 1.52 1.46 1.42 1.37 1.47 1.55 1.61 1.59 1.43 1.36 1.35 1.25 1.11 1.10 1.08 1.00 0.93 0.87 0.85 0.79 0.62 0.62 0.59 0.65 0.77 0.86 0.85 0.88 0.88 0.81 0.85 0.88 0.85 0.83 0.96 1.15 1.20
2.02 1.98 1.92 1.86 1.86 1.83 1.74 1.65 1.57 1.52 1.52 1.57 1.61 1.59 1.53 1.49 1.45 1.28 1.15 1.15 1.12 1.09 1.06 0.94 0.88 0.86 0.78 0.65 0.53 0.58 0.72 0.85 0.86 0.86 0.86 0.75 0.70 0.78 0.78 0.78 0.82 0.90 0.91
1.99 2.01 2.07 2.00 1.97 1.85 1.75 1.66 1.59 1.60 1.63 1.62 1.58 1.54 1.42 1.39 1.33 1.24 1.21 1.17 1.11 1.09 1.04 0.97 0.89 0.81 0.65 0.50 0.44 0.46 0.60 0.78 0.83 0.82 0.83 0.84 0.78 0.73 0.74 0.73 0.78 0.86 0.91
2.11 2.07 2.02 1.93 1.89 1.84 1.75 1.67 1.67 1.66 1.67 1.61 1.49 1.40 1.30 1.29 1.22 1.18 1.12 1.05 0.99 0.97 0.91 0.82 0.79 0.78 0.64 0.43 0.37 0.43 0.60 0.77 0.79 0.74 0.68 0.73 0.74 0.73 0.70 0.75 0.89 0.96 1.00
1.91 1.83 1.67 1.58 1.69 1.78 1.74 1.68 1.64 1.61 1.58 1.38 1.19 1.11 1.12 1.12 1.07 1.01 0.97 0.93 0.91 0.89 0.81 0.70 0.73 0.75 0.71 0.53 0.44 0.48 0.59 0.74 0.73 0.72 0.68 0.63 0.62 0.63 0.64 0.73 0.87 0.96 0.97
1.40 1.35 1.30 1.35 1.45 1.51 1.49 1.52 1.47 1.46 1.38 1.25 1.12 1.04 0.99 0.94 0.91 0.92 0.92 0.87 0.81 0.84 0.82 0.80 0.76 0.70 0.61 0.48 0.41 0.43 0.47 0.60 0.66 0.68 0.72 0.65 0.55 0.53 0.56 0.67 0.74 0.82 0.82
1.07 1.03 1.09 1.17 1.21 1.15 1.15 1.26 1.30 1.23 1.16 1.17 1.12 1.09 0.96 0.82 0.81 0.94 0.92 0.88 0.89 0.90 0.86 0.82 0.75 0.63 0.54 0.42 0.35 0.36 0.41 0.49 0.62 0.71 0.73 0.65 0.55 0.51 0.54 0.62 0.68 0.70 0.81
0.88 0.89 0.89 0.95 1.06 1.08 1.09 1.14 1.12 1.02 1.04 1.14 1.12 1.01 0.88 0.89 0.86 0.90 0.89 0.84 0.83 0.78 0.71 0.68 0.67 0.60 0.53 0.44 0.36 0.38 0.43 0.49 0.56 0.62 0.60 0.55 0.55 0.55 0.66 0.70 0.71 0.81 1.03
0.75 0.81 0.83 0.82 0.89 0.91 0.93 1.01 0.93 0.91 1.07 1.20 1.15 1.02 0.90 0.85 0.82 0.80 0.73 0.68 0.68 0.67 0.64 0.61 0.59 0.55 0.53 0.49 0.46 0.47 0.46 0.47 0.52 0.56 0.56 0.61 0.65 0.69 0.79 0.89 0.99 1.03 1.09
0.75 0.80 0.84 0.83 0.77 0.74 0.78 0.76 0.78 0.92 1.15 1.14 1.03 0.91 0.77 0.72 0.72 0.67 0.58 0.52 0.50 0.47 0.49 0.47 0.46 0.49 0.49 0.44 0.43 0.43 0.42 0.43 0.45 0.47 0.63 0.84 0.89 0.97 1.04 1.07 1.12 1.17 1.10
0.68 0.79 0.77 0.72 0.73 0.77 0.79 0.73 0.72 0.84 1.04 1.05 0.87 0.72 0.63 0.56 0.49 0.49 0.49 0.42 0.37 0.34 0.30 0.32 0.32 0.33 0.33 0.31 0.31 0.34 0.36 0.38 0.42 0.48 0.72 0.84 0.90 0.98 1.02 1.02 1.05 1.09 1.12

GEFSMW_prec_meanprecacc_264.txt.gz
Total_Precipitation_Accumulation
1.65 1.88 2.07 2.28 2.52 2.72 2.87 3.10 3.34 3.71 3.97 4.33 4.63 4.81 4.96 5.16 5.22 5.16 5.12 5.10 5.08 5.18 5.24 5.01 4.99 4.90 4.78 4.56 4.50 4.38 4.15 3.90 3.91 3.77 3.29 2.68 2.31 2.23 2.14 2.20 2.44 2.47 2.36
1.65 2.01 2.33 2.78 3.00 3.11 3.17 3.38 3.70 4.03 4.22 4.59 5.10 5.56 5.71 5.75 5.72 5.70 5.83 5.88 5.88 6.01 6.02 5.98 5.77 5.60 5.34 4.86 4.51 4.37 4.14 3.78 3.91 3.93 3.84 3.12 2.61 2.13 1.73 1.84 1.92 2.03 2.25
1.90 2.15 2.53 2.86 3.00 3.11 3.22 3.38 3.84 4.30 4.76 5.22 5.78 6.24 6.47 6.45 6.27 5.95 6.05 6.18 6.06 6.12 6.25 6.20 5.99 5.69 5.17 4.63 4.47 4.42 4.26 4.00 3.93 3.84 4.01 3.46 2.90 2.45 1.95 1.70 1.61 1.75 1.88
1.85 2.16 2.39 2.70 2.85 2.98 3.22 3.41 3.82 4.48 4.98 5.34 5.97 6.58 6.83 7.01 7.07 6.82 6.50 6.29 6.04 5.90 5.83 5.65 5.23 4.86 4.51 4.23 4.11 4.16 4.04 4.02 3.84 3.74 3.46 3.23 2.95 2.68 2.26 1.82 1.60 1.65 1.70
1.62 1.96 2.12 2.42 2.75 2.86 2.97 3.21 3.77 4.38 5.07 5.68 6.18 6.73 7.15 7.38 7.34 6.90 6.42 5.90 5.52 5.08 4.69 4.38 4.16 4.07 3.88 3.68 3.56 3.57 3.49 3.34 3.25 3.23 3.18 3.13 2.89 2.55 2.34 2.03 1.82 1.81 1.66
1.47 1.63 1.80 2.05 2.40 2.52 2.73 3.04 3.50 4.23 4.92 5.51 6.06 6.52 6.89 6.95 6.64 6.11 5.54 5.17 4.80 4.31 3.81 3.54 3.34 3.21 3.05 2.85 2.74 2.73 2.75 2.84 2.91 2.98 2.96 2.90 2.84 2.65 2.57 2.38 2.13 2.02 1.91
1.35 1.55 1.66 1.83 2.06 2.24 2.50 2.85 3.42 4.09 4.51 4.96 5.43 5.76 5.97 6.06 5.98 5.62 5.13 4.77 4.33 3.91 3.44 2.99 2.78 2.55 2.35 2.24 2.22 2.21 2.21 2.32 2.45 2.57 2.63 2.61 2.55 2.50 2.58 2.67 2.41 2.16 2.01
1.44 1.66 1.80 1.93 2.08 2.20 2.39 2.74 3.18 3.66 3.90 4.10 4.50 4.80 4.91 4.96 4.83 4.57 4.17 3.86 3.55 3.28 2.97 2.53 2.19 1.98 1.84 1.73 1.82 1.84 1.86 1.93 2.04 2.12 2.32 2.33 2.26 2.37 2.47 2.60 2.67 2.55 2.21
1.45 1.66 1.84 1.95 2.05 2.08 2.26 2.45 2.72 2.96 3.19 3.37 3.56 3.71 3.72 3.64 3.53 3.30 3.03 2.81 2.61 2.35 2.20 2.01 1.81 1.70 1.66 1.66 1.69 1.66 1.65 1.74 1.83 1.90 2.05 2.18 2.17 2.24 2.30 2.44 2.55 2.61 2.43
1.46 1.63 1.72 1.78 1.82 1.77 1.88 2.02 2.24 2.39 2.55 2.66 2.69 2.62 2.63 2.57 2.41 2.23 2.13 1.98 1.80 1.67 1.65 1.61 1.60 1.56 1.50 1.57 1.65 1.57 1.55 1.65 1.67 1.66 1.76 1.87 1.94 2.05 2.14 2.27 2.37 2.44 2.40
1.38 1.43 1.48 1.52 1.53 1.47 1.49 1.60 1.77 1.97 2.09 2.10 2.13 2.09 2.02 1.84 1.73 1.62 1.57 1.50 1.42 1.41 1.41 1.43 1.45 1.45 1.43 1.45 1.46 1.41 1.43 1.48 1.63 1.72 1.76 1.79 1.83 1.92 1.93 1.95 2.01 2.15 2.29
1.38 1.32 1.31 1.31 1.31 1.28 1.25 1.33 1.41 1.50 1.54 1.62 1.64 1.63 1.57 1.48 1.41 1.34 1.30 1.32 1.31 1.31 1.33 1.34 1.35 1.40 1.47 1.49 1.42 1.32 1.31 1.40 1.52 1.63 1.70 1.68 1.63 1.70 1.79 1.86 1.86 1.90 2.02
1.44 1.40 1.35 1.26 1.29 1.39 1.38 1.26 1.26 1.28 1.26 1.31 1.33 1.34 1.38 1.36 1.32 1.33 1.35 1.34 1.31 1.31 1.27 1.22 1.26 1.33 1.37 1.37 1.32 1.26 1.25 1.27 1.35 1.42 1.44 1.44 1.46 1.43 1.47 1.55 1.63 1.63 1.64
1.42 1.46 1.52 1.45 1.36 1.40 1.52 1.40 1.25 1.21 1.27 1.25 1.23 1.16 1.14 1.20 1.23 1.22 1.23 1.20 1.19 1.24 1.28 1.25 1.20 1.18 1.11 1.04 1.01 1.01 1.06 1.06 1.08 1.13 1.15 1.20 1.28 1.31 1.34 1.33 1.39 1.44 1.56
1.56 1.55 1.52 1.50 1.43 1.39 1.46 1.43 1.31 1.22 1.44 1.42 1.37 1.25 1.15 1.16 1.21 1.19 1.14 1.09 1.05 1.02 1.06 1.09 1.02 0.93 0.80 0.71 0.71 0.76 0.80 0.86 0.88 0.90 0.88 0.89 1.04 1.14 1.13 1.04 1.16 1.31 1.47
1.76 1.73 1.66 1.67 1.67 1.58 1.54 1.48 1.44 1.39 1.50 1.57 1.65 1.62 1.47 1.41 1.38 1.27 1.14 1.13 1.11 1.04 0.96 0.91 0.89 0.81 0.63 0.63 0.60 0.67 0.79 0.88 0.87 0.90 0.90 0.83 0.87 0.90 0.87 0.85 0.99 1.19 1.25
2.04 2.00 1.94 1.87 1.88 1.84 1.75 1.67 1.59 1.54 1.55 1.61 1.65 1.65 1.59 1.53 1.48 1.31 1.18 1.18 1.16 1.13 1.09 0.97 0.92 0.91 0.82 0.67 0.55 0.58 0.74 0.86 0.88 0.89 0.88 0.77 0.72 0.81 0.81 0.82 0.85 0.93 0.95
2.01 2.03 2.08 2.02 1.98 1.87 1.76 1.67 1.61 1.61 1.65 1.64 1.61 1.57 1.46 1.43 1.37 1.27 1.24 1.21 1.14 1.12 1.07 1.00 0.93 0.85 0.69 0.54 0.47 0.49 0.62 0.80 0.85 0.85 0.85 0.86 0.79 0.75 0.77 0.77 0.82 0.90 0.95
2.13 2.09 2.04 1.95 1.91 1.87 1.78 1.69 1.69 1.68 1.68 1.63 1.52 1.42 1.33 1.32 1.25 1.22 1.16 1.10 1.04 1.01 0.95 0.86 0.82 0.82 0.68 0.46 0.40 0.46 0.62 0.79 0.80 0.76 0.70 0.75 0.77 0.75 0.72 0.77 0.92 0.99 1.03
1.93 1.85 1.69 1.60 1.72 1.81 1.77 1.70 1.66 1.64 1.62 1.43 1.23 1.14 1.14 1.15 1.09 1.03 0.99 0.96 0.95 0.94 0.85 0.73 0.75 0.77 0.74 0.58 0.49 0.51 0.61 0.76 0.76 0.75 0.71 0.66 0.65 0.65 0.67 0.77 0.91 0.99 1.00
1.45 1.39 1.34 1.38 1.49 1.55 1.53 1.55 1.49 1.47 1.39 1.28 1.17 1.09 1.04 0.98 0.94 0.93 0.94 0.90 0.85 0.88 0.87 0.84 0.79 0.73 0.63 0.51 0.45 0.46 0.49 0.62 0.69 0.70 0.75 0.69 0.59 0.56 0.60 0.72 0.79 0.85 0.85
1.10 1.06 1.12 1.20 1.25 1.20 1.20 1.31 1.33 1.25 1.17 1.18 1.14 1.13 1.02 0.85 0.84 0.96 0.94 0.91 0.92 0.93 0.88 0.84 0.77 0.66 0.57 0.45 0.38 0.39 0.42 0.50 0.64 0.73 0.74 0.68 0.59 0.55 0.58 0.65 0.71 0.74 0.85
0.89 0.90 0.90 0.97 1.08 1.12 1.13 1.18 1.16 1.06 1.06 1.16 1.13 1.02 0.90 0.92 0.89 0.93 0.92 0.86 0.85 0.79 0.72 0.70 0.69 0.62 0.54 0.46 0.38 0.40 0.45 0.51 0.57 0.64 0.61 0.57 0.57 0.58 0.69 0.73 0.74 0.84 1.07
0.76 0.83 0.85 0.85 0.92 0.93 0.96 1.04 0.98 0.96 1.12 1.23 1.17 1.03 0.92 0.87 0.85 0.84 0.77 0.71 0.70 0.69 0.66 0.63 0.61 0.58 0.55 0.50 0.47 0.48 0.47 0.48 0.54 0.58 0.58 0.63 0.67 0.71 0.81 0.92 1.02 1.06 1.12
0.77 0.82 0.87 0.87 0.81 0.77 0.80 0.79 0.81 0.95 1.19 1.17 1.05 0.92 0.78 0.73 0.74 0.69 0.61 0.55 0.52 0.49 0.51 0.50 0.48 0.52 0.53 0.46 0.45 0.45 0.43 0.45 0.46 0.49 0.65 0.86 0.91 0.99 1.06 1.10 1.15 1.19 1.13
0.70 0.81 0.80 0.75 0.76 0.79 0.80 0.73 0.73 0.85 1.06 1.07 0.88 0.74 0.64 0.57 0.51 0.51 0.51 0.44 0.38 0.35 0.33 0.34 0.36 0.36 0.36 0.34 0.33 0.36 0.38 0.41 0.45 0.51 0.75 0.86 0.92 1.01 1.05 1.05 1.08 1.13 1.15